Time,TemperatureF,DewpointF,PressureIn,WindDirection,WindDirectionDegrees,WindSpeedMPH,WindSpeedGustMPH,Humidity,HourlyPrecipIn,Conditions,Clouds,dailyrainin,SolarRadiationWatts/m^2,SoftwareType,DateUTC
2013-12-25 00:00:00,8.1,5.3,30.38,SSE,165,2.0,4.0,88,0.00,,,0.00,0,Wunderground v.1.15,2013-12-25 06:00:00,
2013-12-25 00:01:00,8.1,5.3,30.38,SSE,157,2.0,7.0,88,0.00,,,0.00,0,Wunderground v.1.15,2013-12-25 06:01:00,
2013-12-25 00:02:00,8.1,5.3,30.38,South,171,3.0,7.0,88,0.00,,,0.00,0,Wunderground v.1.15,2013-12-25 06:02:00,
2013-12-25 00:07:00,8.1,5.3,30.38,South,175,4.0,7.0,88,0.00,,,0.00,0,Wunderground v.1.15,2013-12-25 06:07:00,
2013-12-25 00:08:00,8.2,5.4,30.37,South,186,4.0,7.0,88,0.00,,,0.00,0,Wunderground v.1.15,2013-12-25 06:08:00,
2013-12-25 00:12:00,8.2,5.4,30.37,South,183,3.0,6.0,88,0.00,,,0.00,0,Wunderground v.1.15,2013-12-25 06:12:00,
2013-12-25 00:13:00,8.2,5.4,30.37,South,169,4.0,6.0,88,0.00,,,0.00,0,Wunderground v.1.15,2013-12-25 06:13:00,
2013-12-25 00:14:00,8.2,5.4,30.37,SSE,155,4.0,6.0,88,0.00,,,0.00,0,Wunderground v.1.15,2013-12-25 06:14:00,
2013-12-25 00:15:00,8.2,5.4,30.37,SSE,155,4.0,6.0,88,0.00,,,0.00,0,Wunderground v.1.15,2013-12-25 06:15:00,
2013-12-25 00:18:00,8.2,5.4,30.37,SE,134,4.0,11.0,88,0.00,,,0.00,0,Wunderground v.1.15,2013-12-25 06:18:00,
2013-12-25 00:19:00,8.2,5.4,30.37,SE,145,5.0,11.0,88,0.00,,,0.00,0,Wunderground v.1.15,2013-12-25 06:19:00,
2013-12-25 00:20:00,8.2,5.4,30.37,SSE,161,5.0,6.0,88,0.00,,,0.00,0,Wunderground v.1.15,2013-12-25 06:20:00,
2013-12-25 00:21:00,8.2,5.4,30.36,SE,134,6.0,8.0,88,0.00,,,0.00,0,Wunderground v.1.15,2013-12-25 06:21:00,
2013-12-25 00:22:00,8.2,5.4,30.36,SSE,148,6.0,8.0,88,0.00,,,0.00,0,Wunderground v.1.15,2013-12-25 06:22:00,
2013-12-25 00:23:00,8.2,5.4,30.36,South,185,6.0,8.0,88,0.00,,,0.00,0,Wunderground v.1.15,2013-12-25 06:23:00,
2013-12-25 00:25:00,8.2,5.4,30.36,SSE,160,6.0,8.0,88,0.00,,,0.00,0,Wunderground v.1.15,2013-12-25 06:25:00,
2013-12-25 00:27:00,8.2,5.4,30.36,South,173,6.0,8.0,88,0.00,,,0.00,0,Wunderground v.1.15,2013-12-25 06:27:00,
2013-12-25 00:28:00,8.2,5.4,30.36,SSE,167,6.0,8.0,88,0.00,,,0.00,0,Wunderground v.1.15,2013-12-25 06:28:00,
2013-12-25 00:30:00,8.2,5.4,30.36,SSE,151,5.0,5.0,88,0.00,,,0.00,0,Wunderground v.1.15,2013-12-25 06:30:00,
2013-12-25 00:31:00,8.2,5.4,30.36,SSE,155,4.0,7.0,88,0.00,,,0.00,0,Wunderground v.1.15,2013-12-25 06:31:00,
2013-12-25 00:35:00,8.2,5.4,30.36,SSE,150,4.0,7.0,88,0.00,,,0.00,0,Wunderground v.1.15,2013-12-25 06:35:00,
2013-12-25 00:36:00,8.2,5.4,30.36,SSE,163,4.0,7.0,88,0.00,,,0.00,0,Wunderground v.1.15,2013-12-25 06:36:00,
2013-12-25 00:37:00,8.2,5.4,30.36,SE,131,5.0,7.0,88,0.00,,,0.00,0,Wunderground v.1.15,2013-12-25 06:37:00,
2013-12-25 00:38:00,8.2,5.4,30.36,South,175,5.0,7.0,88,0.00,,,0.00,0,Wunderground v.1.15,2013-12-25 06:38:00,
2013-12-25 00:39:00,8.2,5.4,30.36,South,169,5.0,7.0,88,0.00,,,0.00,0,Wunderground v.1.15,2013-12-25 06:39:00,
2013-12-25 00:40:00,8.2,5.4,30.36,SSE,159,5.0,5.0,88,0.00,,,0.00,0,Wunderground v.1.15,2013-12-25 06:40:00,
2013-12-25 00:42:00,8.2,5.4,30.36,SSE,154,5.0,5.0,88,0.00,,,0.00,0,Wunderground v.1.15,2013-12-25 06:42:00,
2013-12-25 00:44:00,8.2,5.4,30.36,SSW,197,4.0,5.0,88,0.00,,,0.00,0,Wunderground v.1.15,2013-12-25 06:44:00,
2013-12-25 00:45:00,8.2,5.4,30.36,South,188,4.0,5.0,88,0.00,,,0.00,0,Wunderground v.1.15,2013-12-25 06:45:00,
2013-12-25 00:47:00,8.2,5.4,30.36,SSE,157,4.0,8.0,88,0.00,,,0.00,0,Wunderground v.1.15,2013-12-25 06:47:00,
2013-12-25 00:48:00,8.2,5.4,30.36,SSE,155,4.0,8.0,88,0.00,,,0.00,0,Wunderground v.1.15,2013-12-25 06:48:00,
2013-12-25 00:51:00,8.2,5.4,30.36,SE,145,4.0,4.0,88,0.00,,,0.00,0,Wunderground v.1.15,2013-12-25 06:51:00,
2013-12-25 00:52:00,8.2,5.4,30.36,SSE,163,4.0,5.0,88,0.00,,,0.00,0,Wunderground v.1.15,2013-12-25 06:52:00,
2013-12-25 00:53:00,8.2,5.4,30.36,SSE,164,4.0,5.0,88,0.00,,,0.00,0,Wunderground v.1.15,2013-12-25 06:53:00,
2013-12-25 00:56:00,8.2,5.4,30.36,SSE,164,4.0,5.0,88,0.00,,,0.00,0,Wunderground v.1.15,2013-12-25 06:56:00,
2013-12-25 00:58:00,8.2,5.4,30.35,SSE,163,3.0,5.0,88,0.00,,,0.00,0,Wunderground v.1.15,2013-12-25 06:58:00,
2013-12-25 00:59:00,8.2,5.4,30.36,SSE,163,3.0,5.0,88,0.00,,,0.00,0,Wunderground v.1.15,2013-12-25 06:59:00,
2013-12-25 01:00:00,8.2,5.4,30.36,SSE,163,3.0,3.0,88,0.00,,,0.00,0,Wunderground v.1.15,2013-12-25 07:00:00,
2013-12-25 01:01:00,8.2,5.4,30.35,SSE,163,2.0,5.0,88,0.00,,,0.00,0,Wunderground v.1.15,2013-12-25 07:01:00,
2013-12-25 01:03:00,8.2,5.4,30.35,SSE,161,2.0,7.0,88,0.00,,,0.00,0,Wunderground v.1.15,2013-12-25 07:03:00,
2013-12-25 01:05:00,8.2,5.4,30.35,SSE,161,2.0,7.0,88,0.00,,,0.00,0,Wunderground v.1.15,2013-12-25 07:05:00,
2013-12-25 01:06:00,8.2,5.4,30.35,SSE,161,2.0,7.0,88,0.00,,,0.00,0,Wunderground v.1.15,2013-12-25 07:06:00,
2013-12-25 01:09:00,8.2,5.4,30.35,SSE,161,2.0,7.0,88,0.00,,,0.00,0,Wunderground v.1.15,2013-12-25 07:09:00,
2013-12-25 01:10:00,8.2,5.4,30.35,SSE,161,2.0,2.0,88,0.00,,,0.00,0,Wunderground v.1.15,2013-12-25 07:10:00,
2013-12-25 01:11:00,8.2,5.4,30.35,SSE,161,2.0,2.0,88,0.00,,,0.00,0,Wunderground v.1.15,2013-12-25 07:11:00,
2013-12-25 01:13:00,8.2,5.4,30.35,SSE,161,2.0,2.0,88,0.00,,,0.00,0,Wunderground v.1.15,2013-12-25 07:13:00,
2013-12-25 01:16:00,8.2,5.4,30.35,SSE,161,2.0,2.0,88,0.00,,,0.00,0,Wunderground v.1.15,2013-12-25 07:16:00,
2013-12-25 01:17:00,8.2,5.4,30.35,SSE,161,1.0,2.0,88,0.00,,,0.00,0,Wunderground v.1.15,2013-12-25 07:17:00,
2013-12-25 01:18:00,8.2,5.4,30.35,SSE,161,1.0,2.0,88,0.00,,,0.00,0,Wunderground v.1.15,2013-12-25 07:18:00,
2013-12-25 01:20:00,8.2,5.4,30.35,SSE,161,1.0,1.0,88,0.00,,,0.00,0,Wunderground v.1.15,2013-12-25 07:20:00,
2013-12-25 01:21:00,8.2,5.4,30.35,SSE,161,1.0,1.0,88,0.00,,,0.00,0,Wunderground v.1.15,2013-12-25 07:21:00,
2013-12-25 01:23:00,8.2,5.4,30.35,SSE,161,1.0,4.0,88,0.00,,,0.00,0,Wunderground v.1.15,2013-12-25 07:23:00,
2013-12-25 01:25:00,8.2,5.4,30.35,SSE,153,1.0,4.0,88,0.00,,,0.00,0,Wunderground v.1.15,2013-12-25 07:25:00,
2013-12-25 01:27:00,8.3,5.5,30.34,SSE,153,1.0,4.0,88,0.00,,,0.00,0,Wunderground v.1.15,2013-12-25 07:27:00,
2013-12-25 01:28:00,8.2,5.4,30.35,SSE,153,1.0,4.0,88,0.00,,,0.00,0,Wunderground v.1.15,2013-12-25 07:28:00,
2013-12-25 01:30:00,8.3,5.5,30.35,SSE,153,2.0,2.0,88,0.00,,,0.00,0,Wunderground v.1.15,2013-12-25 07:30:00,
2013-12-25 01:33:00,8.3,5.5,30.34,SSE,153,2.0,2.0,88,0.00,,,0.00,0,Wunderground v.1.15,2013-12-25 07:33:00,
2013-12-25 01:35:00,8.3,5.5,30.34,SSE,153,2.0,5.0,88,0.00,,,0.00,0,Wunderground v.1.15,2013-12-25 07:35:00,
2013-12-25 01:36:00,8.3,5.5,30.34,SSE,153,2.0,5.0,88,0.00,,,0.00,0,Wunderground v.1.15,2013-12-25 07:36:00,
2013-12-25 01:38:00,8.3,5.5,30.34,SSE,153,2.0,5.0,88,0.00,,,0.00,0,Wunderground v.1.15,2013-12-25 07:38:00,
2013-12-25 01:39:00,8.3,5.5,30.34,SSE,153,2.0,5.0,88,0.00,,,0.00,0,Wunderground v.1.15,2013-12-25 07:39:00,
2013-12-25 01:40:00,8.3,5.5,30.34,SSE,153,2.0,2.0,88,0.00,,,0.00,0,Wunderground v.1.15,2013-12-25 07:40:00,
2013-12-25 01:42:00,8.3,5.5,30.33,SSE,153,1.0,2.0,88,0.00,,,0.00,0,Wunderground v.1.15,2013-12-25 07:42:00,
2013-12-25 01:44:00,8.3,5.5,30.34,SSE,153,1.0,2.0,88,0.00,,,0.00,0,Wunderground v.1.15,2013-12-25 07:44:00,
2013-12-25 01:46:00,8.3,5.5,30.34,SSE,153,1.0,2.0,88,0.00,,,0.00,0,Wunderground v.1.15,2013-12-25 07:46:00,
2013-12-25 01:47:00,8.3,5.5,30.33,SSE,153,1.0,2.0,88,0.00,,,0.00,0,Wunderground v.1.15,2013-12-25 07:47:00,
2013-12-25 01:50:00,8.3,5.5,30.33,SSE,153,1.0,1.0,88,0.00,,,0.00,0,Wunderground v.1.15,2013-12-25 07:50:00,
2013-12-25 01:52:00,8.3,5.5,30.33,SSE,153,1.0,1.0,88,0.00,,,0.00,0,Wunderground v.1.15,2013-12-25 07:52:00,
2013-12-25 01:55:00,8.3,5.5,30.33,SSE,153,1.0,5.0,88,0.00,,,0.00,0,Wunderground v.1.15,2013-12-25 07:55:00,
2013-12-25 01:57:00,8.3,5.5,30.33,SSE,153,1.0,5.0,88,0.00,,,0.00,0,Wunderground v.1.15,2013-12-25 07:57:00,
2013-12-25 02:00:00,8.3,5.5,30.33,SSE,153,2.0,2.0,88,0.00,,,0.00,0,Wunderground v.1.15,2013-12-25 08:00:00,
2013-12-25 02:01:00,8.3,5.5,30.33,SSE,153,2.0,2.0,88,0.00,,,0.00,0,Wunderground v.1.15,2013-12-25 08:01:00,
2013-12-25 02:02:00,8.2,5.4,30.33,SSE,153,2.0,2.0,88,0.00,,,0.00,0,Wunderground v.1.15,2013-12-25 08:02:00,
2013-12-25 02:03:00,8.3,5.5,30.33,SSE,153,2.0,2.0,88,0.00,,,0.00,0,Wunderground v.1.15,2013-12-25 08:03:00,
2013-12-25 02:05:00,8.3,5.5,30.33,SSE,153,1.0,2.0,88,0.00,,,0.00,0,Wunderground v.1.15,2013-12-25 08:05:00,
2013-12-25 02:07:00,8.3,5.5,30.33,SSE,155,2.0,4.0,88,0.00,,,0.00,0,Wunderground v.1.15,2013-12-25 08:07:00,
2013-12-25 02:08:00,8.3,5.5,30.33,SSE,155,2.0,4.0,88,0.00,,,0.00,0,Wunderground v.1.15,2013-12-25 08:08:00,
2013-12-25 02:11:00,8.3,5.5,30.33,SSE,155,2.0,2.0,88,0.00,,,0.00,0,Wunderground v.1.15,2013-12-25 08:11:00,
2013-12-25 02:14:00,8.3,5.5,30.34,SSE,155,2.0,5.0,88,0.00,,,0.00,0,Wunderground v.1.15,2013-12-25 08:14:00,
2013-12-25 02:15:00,8.3,5.5,30.34,SSE,155,2.0,5.0,88,0.00,,,0.00,0,Wunderground v.1.15,2013-12-25 08:15:00,
2013-12-25 02:16:00,8.3,5.5,30.34,SSE,155,2.0,5.0,88,0.00,,,0.00,0,Wunderground v.1.15,2013-12-25 08:16:00,
2013-12-25 02:18:00,8.4,5.6,30.34,SSE,155,2.0,5.0,88,0.00,,,0.00,0,Wunderground v.1.15,2013-12-25 08:18:00,
2013-12-25 02:20:00,8.3,5.5,30.34,SSE,155,2.0,2.0,88,0.00,,,0.00,0,Wunderground v.1.15,2013-12-25 08:20:00,
2013-12-25 02:21:00,8.4,5.6,30.34,SSE,155,1.0,2.0,88,0.00,,,0.00,0,Wunderground v.1.15,2013-12-25 08:21:00,
2013-12-25 02:22:00,8.4,5.6,30.34,SSE,155,1.0,2.0,88,0.00,,,0.00,0,Wunderground v.1.15,2013-12-25 08:22:00,
2013-12-25 02:24:00,8.4,5.6,30.34,SSE,155,1.0,2.0,88,0.00,,,0.00,0,Wunderground v.1.15,2013-12-25 08:24:00,
2013-12-25 02:26:00,8.4,5.6,30.34,SSE,155,1.0,2.0,88,0.00,,,0.00,0,Wunderground v.1.15,2013-12-25 08:26:00,
2013-12-25 02:27:00,8.4,5.6,30.34,SSE,155,1.0,2.0,88,0.00,,,0.00,0,Wunderground v.1.15,2013-12-25 08:27:00,
2013-12-25 02:28:00,8.5,5.7,30.34,SSE,155,1.0,2.0,88,0.00,,,0.00,0,Wunderground v.1.15,2013-12-25 08:28:00,
2013-12-25 02:31:00,8.5,5.7,30.34,SSE,155,1.0,1.0,88,0.00,,,0.00,0,Wunderground v.1.15,2013-12-25 08:31:00,
2013-12-25 02:33:00,8.5,5.7,30.34,SSE,155,0.0,1.0,88,0.00,,,0.00,0,Wunderground v.1.15,2013-12-25 08:33:00,
2013-12-25 02:35:00,8.5,5.7,30.34,SSE,155,0.0,1.0,88,0.00,,,0.00,0,Wunderground v.1.15,2013-12-25 08:35:00,
2013-12-25 02:37:00,8.5,5.7,30.34,SSE,155,0.0,1.0,88,0.00,,,0.00,0,Wunderground v.1.15,2013-12-25 08:37:00,
2013-12-25 02:39:00,8.6,5.8,30.34,SSE,155,0.0,1.0,88,0.00,,,0.00,0,Wunderground v.1.15,2013-12-25 08:39:00,
2013-12-25 02:41:00,8.6,5.8,30.34,SSE,155,0.0,0.0,88,0.00,,,0.00,0,Wunderground v.1.15,2013-12-25 08:41:00,
2013-12-25 02:42:00,8.6,5.8,30.34,SSE,155,0.0,0.0,88,0.00,,,0.00,0,Wunderground v.1.15,2013-12-25 08:42:00,
2013-12-25 02:44:00,8.6,5.8,30.34,SSE,155,0.0,0.0,88,0.00,,,0.00,0,Wunderground v.1.15,2013-12-25 08:44:00,
2013-12-25 02:47:00,8.7,5.9,30.34,SSE,155,0.0,0.0,88,0.00,,,0.00,0,Wunderground v.1.15,2013-12-25 08:47:00,
2013-12-25 02:48:00,8.7,5.9,30.33,SSE,155,0.0,0.0,88,0.00,,,0.00,0,Wunderground v.1.15,2013-12-25 08:48:00,
2013-12-25 02:50:00,8.7,5.9,30.34,SSE,155,0.0,0.0,88,0.00,,,0.00,0,Wunderground v.1.15,2013-12-25 08:50:00,
2013-12-25 02:51:00,8.7,5.9,30.33,SSE,155,0.0,1.0,88,0.00,,,0.00,0,Wunderground v.1.15,2013-12-25 08:51:00,
2013-12-25 02:54:00,8.7,5.9,30.33,SSE,155,0.0,1.0,88,0.00,,,0.00,0,Wunderground v.1.15,2013-12-25 08:54:00,
2013-12-25 02:55:00,8.7,5.9,30.33,SSE,155,0.0,1.0,88,0.00,,,0.00,0,Wunderground v.1.15,2013-12-25 08:55:00,
2013-12-25 02:57:00,8.7,5.9,30.33,SSE,155,0.0,2.0,88,0.00,,,0.00,0,Wunderground v.1.15,2013-12-25 08:57:00,
2013-12-25 02:59:00,8.8,6.0,30.33,SSE,155,1.0,2.0,88,0.00,,,0.00,0,Wunderground v.1.15,2013-12-25 08:59:00,
2013-12-25 03:01:00,8.8,6.0,30.33,SSE,155,1.0,1.0,88,0.00,,,0.00,0,Wunderground v.1.15,2013-12-25 09:01:00,
2013-12-25 03:02:00,8.8,6.0,30.33,SSE,155,1.0,1.0,88,0.00,,,0.00,0,Wunderground v.1.15,2013-12-25 09:02:00,
2013-12-25 03:04:00,8.8,6.0,30.33,SSE,155,1.0,2.0,88,0.00,,,0.00,0,Wunderground v.1.15,2013-12-25 09:04:00,
2013-12-25 03:05:00,8.9,6.1,30.33,SSE,155,1.0,2.0,88,0.00,,,0.00,0,Wunderground v.1.15,2013-12-25 09:05:00,
2013-12-25 03:06:00,8.9,6.1,30.33,SSE,155,1.0,2.0,88,0.00,,,0.00,0,Wunderground v.1.15,2013-12-25 09:06:00,
2013-12-25 03:07:00,8.9,6.1,30.33,SSE,155,1.0,2.0,88,0.00,,,0.00,0,Wunderground v.1.15,2013-12-25 09:07:00,
2013-12-25 03:11:00,8.9,6.1,30.33,SSE,155,1.0,1.0,88,0.00,,,0.00,0,Wunderground v.1.15,2013-12-25 09:11:00,
2013-12-25 03:12:00,8.9,6.1,30.33,SSE,155,1.0,1.0,88,0.00,,,0.00,0,Wunderground v.1.15,2013-12-25 09:12:00,
2013-12-25 03:14:00,9.0,6.2,30.33,SSE,155,1.0,1.0,88,0.00,,,0.00,0,Wunderground v.1.15,2013-12-25 09:14:00,
2013-12-25 03:17:00,9.0,6.2,30.33,SSE,155,1.0,4.0,88,0.00,,,0.00,0,Wunderground v.1.15,2013-12-25 09:17:00,
2013-12-25 03:18:00,9.0,6.2,30.33,SSE,155,1.0,4.0,88,0.00,,,0.00,0,Wunderground v.1.15,2013-12-25 09:18:00,
2013-12-25 03:19:00,9.0,6.2,30.33,SSE,155,1.0,4.0,88,0.00,,,0.00,0,Wunderground v.1.15,2013-12-25 09:19:00,
2013-12-25 03:20:00,9.0,6.2,30.33,SSE,155,1.0,1.0,88,0.00,,,0.00,0,Wunderground v.1.15,2013-12-25 09:20:00,
2013-12-25 03:22:00,9.1,6.3,30.33,SSE,155,1.0,1.0,88,0.00,,,0.00,0,Wunderground v.1.15,2013-12-25 09:22:00,
2013-12-25 03:27:00,9.1,6.3,30.33,SSE,155,2.0,2.0,88,0.00,,,0.00,0,Wunderground v.1.15,2013-12-25 09:27:00,
2013-12-25 03:29:00,9.1,6.3,30.33,SSE,155,1.0,2.0,88,0.00,,,0.00,0,Wunderground v.1.15,2013-12-25 09:29:00,
2013-12-25 03:30:00,9.1,6.3,30.33,SSE,155,1.0,1.0,88,0.00,,,0.00,0,Wunderground v.1.15,2013-12-25 09:30:00,
2013-12-25 03:31:00,9.2,6.4,30.33,SSE,155,1.0,1.0,88,0.00,,,0.00,0,Wunderground v.1.15,2013-12-25 09:31:00,
2013-12-25 03:32:00,9.2,6.4,30.33,SSE,155,1.0,4.0,88,0.00,,,0.00,0,Wunderground v.1.15,2013-12-25 09:32:00,
2013-12-25 03:33:00,9.2,6.4,30.33,SSE,155,1.0,4.0,88,0.00,,,0.00,0,Wunderground v.1.15,2013-12-25 09:33:00,
2013-12-25 03:37:00,9.2,6.4,30.33,SSE,155,1.0,4.0,88,0.00,,,0.00,0,Wunderground v.1.15,2013-12-25 09:37:00,
2013-12-25 03:38:00,9.2,6.4,30.33,SSE,155,1.0,4.0,88,0.00,,,0.00,0,Wunderground v.1.15,2013-12-25 09:38:00,
2013-12-25 03:39:00,9.3,6.5,30.32,SSE,155,1.0,4.0,88,0.00,,,0.00,0,Wunderground v.1.15,2013-12-25 09:39:00,
2013-12-25 03:40:00,9.3,6.5,30.32,SSE,155,1.0,2.0,88,0.00,,,0.00,0,Wunderground v.1.15,2013-12-25 09:40:00,
2013-12-25 03:42:00,9.3,6.5,30.32,SSE,155,2.0,2.0,88,0.00,,,0.00,0,Wunderground v.1.15,2013-12-25 09:42:00,
2013-12-25 03:44:00,9.3,6.5,30.32,SSE,155,1.0,2.0,88,0.00,,,0.00,0,Wunderground v.1.15,2013-12-25 09:44:00,
2013-12-25 03:46:00,9.4,6.6,30.32,SSE,155,1.0,2.0,88,0.00,,,0.00,0,Wunderground v.1.15,2013-12-25 09:46:00,
2013-12-25 03:47:00,9.4,6.6,30.32,SSE,155,1.0,2.0,88,0.00,,,0.00,0,Wunderground v.1.15,2013-12-25 09:47:00,
2013-12-25 03:48:00,9.4,6.6,30.32,SSE,153,2.0,2.0,88,0.00,,,0.00,0,Wunderground v.1.15,2013-12-25 09:48:00,
2013-12-25 03:50:00,9.5,6.9,30.32,SSE,153,1.0,4.0,89,0.00,,,0.00,0,Wunderground v.1.15,2013-12-25 09:50:00,
2013-12-25 03:52:00,9.5,6.9,30.32,SSE,167,1.0,6.0,89,0.00,,,0.00,0,Wunderground v.1.15,2013-12-25 09:52:00,
2013-12-25 03:55:00,9.6,7.0,30.32,South,175,3.0,6.0,89,0.00,,,0.00,0,Wunderground v.1.15,2013-12-25 09:55:00,
2013-12-25 03:56:00,9.6,6.8,30.32,South,175,3.0,6.0,88,0.00,,,0.00,0,Wunderground v.1.15,2013-12-25 09:56:00,
2013-12-25 03:57:00,9.6,7.0,30.32,South,179,3.0,8.0,89,0.00,,,0.00,0,Wunderground v.1.15,2013-12-25 09:57:00,
2013-12-25 03:59:00,9.7,7.1,30.32,South,190,3.0,8.0,89,0.00,,,0.00,0,Wunderground v.1.15,2013-12-25 09:59:00,
2013-12-25 04:02:00,9.8,7.0,30.32,South,183,4.0,4.0,88,0.00,,,0.00,0,Wunderground v.1.15,2013-12-25 10:02:00,
2013-12-25 04:04:00,9.8,7.0,30.31,South,181,3.0,4.0,88,0.00,,,0.00,0,Wunderground v.1.15,2013-12-25 10:04:00,
2013-12-25 04:05:00,9.9,7.1,30.31,South,181,3.0,4.0,88,0.00,,,0.00,0,Wunderground v.1.15,2013-12-25 10:05:00,
2013-12-25 04:06:00,9.9,7.1,30.31,South,181,3.0,4.0,88,0.00,,,0.00,0,Wunderground v.1.15,2013-12-25 10:06:00,
2013-12-25 04:08:00,9.9,7.1,30.31,South,181,3.0,4.0,88,0.00,,,0.00,0,Wunderground v.1.15,2013-12-25 10:08:00,
2013-12-25 04:09:00,9.9,7.1,30.31,South,179,3.0,6.0,88,0.00,,,0.00,0,Wunderground v.1.15,2013-12-25 10:09:00,
2013-12-25 04:10:00,9.9,7.1,30.31,South,175,3.0,4.0,88,0.00,,,0.00,0,Wunderground v.1.15,2013-12-25 10:10:00,
2013-12-25 04:12:00,10.0,7.2,30.31,South,175,3.0,4.0,88,0.00,,,0.00,0,Wunderground v.1.15,2013-12-25 10:12:00,
2013-12-25 04:13:00,10.0,7.2,30.31,South,175,3.0,4.0,88,0.00,,,0.00,0,Wunderground v.1.15,2013-12-25 10:13:00,
2013-12-25 04:14:00,10.0,7.2,30.31,South,175,3.0,4.0,88,0.00,,,0.00,0,Wunderground v.1.15,2013-12-25 10:14:00,
2013-12-25 04:15:00,10.0,7.2,30.31,South,175,3.0,4.0,88,0.00,,,0.00,0,Wunderground v.1.15,2013-12-25 10:15:00,
2013-12-25 04:19:00,10.0,7.2,30.31,South,175,3.0,5.0,88,0.00,,,0.00,0,Wunderground v.1.15,2013-12-25 10:19:00,
2013-12-25 04:20:00,10.0,7.2,30.31,South,175,3.0,4.0,88,0.00,,,0.00,0,Wunderground v.1.15,2013-12-25 10:20:00,
2013-12-25 04:21:00,10.0,7.2,30.31,South,175,3.0,4.0,88,0.00,,,0.00,0,Wunderground v.1.15,2013-12-25 10:21:00,
2013-12-25 04:24:00,10.1,7.3,30.30,South,175,3.0,4.0,88,0.00,,,0.00,0,Wunderground v.1.15,2013-12-25 10:24:00,
2013-12-25 04:26:00,10.1,7.3,30.30,South,178,3.0,4.0,88,0.00,,,0.00,0,Wunderground v.1.15,2013-12-25 10:26:00,
2013-12-25 04:27:00,10.1,7.3,30.30,South,178,3.0,4.0,88,0.00,,,0.00,0,Wunderground v.1.15,2013-12-25 10:27:00,
2013-12-25 04:28:00,10.1,7.3,30.30,South,178,3.0,4.0,88,0.00,,,0.00,0,Wunderground v.1.15,2013-12-25 10:28:00,
2013-12-25 04:30:00,10.1,7.3,30.30,South,178,3.0,3.0,88,0.00,,,0.00,0,Wunderground v.1.15,2013-12-25 10:30:00,
2013-12-25 04:33:00,10.1,7.3,30.30,South,178,3.0,3.0,88,0.00,,,0.00,0,Wunderground v.1.15,2013-12-25 10:33:00,
2013-12-25 04:35:00,10.1,7.3,30.30,South,178,2.0,3.0,88,0.00,,,0.00,0,Wunderground v.1.15,2013-12-25 10:35:00,
2013-12-25 04:37:00,10.1,7.3,30.30,South,178,2.0,4.0,88,0.00,,,0.00,0,Wunderground v.1.15,2013-12-25 10:37:00,
2013-12-25 04:39:00,10.2,7.4,30.30,South,178,2.0,5.0,88,0.00,,,0.00,0,Wunderground v.1.15,2013-12-25 10:39:00,
2013-12-25 04:40:00,10.2,7.4,30.30,South,178,2.0,2.0,88,0.00,,,0.00,0,Wunderground v.1.15,2013-12-25 10:40:00,
2013-12-25 04:41:00,10.2,7.4,30.30,South,178,2.0,2.0,88,0.00,,,0.00,0,Wunderground v.1.15,2013-12-25 10:41:00,
2013-12-25 04:44:00,10.2,7.4,30.30,South,178,2.0,4.0,88,0.00,,,0.00,0,Wunderground v.1.15,2013-12-25 10:44:00,
2013-12-25 04:46:00,10.2,7.4,30.30,South,178,2.0,4.0,88,0.00,,,0.00,0,Wunderground v.1.15,2013-12-25 10:46:00,
2013-12-25 04:48:00,10.2,7.4,30.30,South,177,2.0,4.0,88,0.00,,,0.00,0,Wunderground v.1.15,2013-12-25 10:48:00,
2013-12-25 04:49:00,10.3,7.5,30.30,South,172,2.0,6.0,88,0.00,,,0.00,0,Wunderground v.1.15,2013-12-25 10:49:00,
2013-12-25 04:51:00,10.3,7.5,30.30,SSE,166,2.0,4.0,88,0.00,,,0.00,0,Wunderground v.1.15,2013-12-25 10:51:00,
2013-12-25 04:52:00,10.3,7.5,30.30,SSE,166,2.0,4.0,88,0.00,,,0.00,0,Wunderground v.1.15,2013-12-25 10:52:00,
2013-12-25 04:53:00,10.3,7.5,30.30,SSE,166,2.0,4.0,88,0.00,,,0.00,0,Wunderground v.1.15,2013-12-25 10:53:00,
2013-12-25 04:54:00,10.3,7.5,30.30,SSE,166,2.0,4.0,88,0.00,,,0.00,0,Wunderground v.1.15,2013-12-25 10:54:00,
2013-12-25 04:58:00,10.4,7.6,30.30,SSE,165,3.0,5.0,88,0.00,,,0.00,0,Wunderground v.1.15,2013-12-25 10:58:00,
2013-12-25 05:00:00,10.4,7.6,30.30,SSE,165,3.0,4.0,88,0.00,,,0.00,0,Wunderground v.1.15,2013-12-25 11:00:00,
2013-12-25 05:01:00,10.4,7.6,30.30,SSE,165,3.0,4.0,88,0.00,,,0.00,0,Wunderground v.1.15,2013-12-25 11:01:00,
2013-12-25 05:03:00,10.4,7.6,30.30,SSE,165,3.0,5.0,88,0.00,,,0.00,0,Wunderground v.1.15,2013-12-25 11:03:00,
2013-12-25 05:04:00,10.4,7.6,30.30,SSE,165,3.0,5.0,88,0.00,,,0.00,0,Wunderground v.1.15,2013-12-25 11:04:00,
2013-12-25 05:05:00,10.4,7.6,30.30,SSE,165,3.0,5.0,88,0.00,,,0.00,0,Wunderground v.1.15,2013-12-25 11:05:00,
2013-12-25 05:08:00,10.4,7.6,30.30,SSE,165,2.0,5.0,88,0.00,,,0.00,0,Wunderground v.1.15,2013-12-25 11:08:00,
2013-12-25 05:09:00,10.4,7.6,30.30,SSE,165,2.0,5.0,88,0.00,,,0.00,0,Wunderground v.1.15,2013-12-25 11:09:00,
2013-12-25 05:10:00,10.4,7.6,30.30,SSE,165,2.0,2.0,88,0.00,,,0.00,0,Wunderground v.1.15,2013-12-25 11:10:00,
2013-12-25 05:12:00,10.4,7.6,30.30,SSE,165,2.0,4.0,88,0.00,,,0.00,0,Wunderground v.1.15,2013-12-25 11:12:00,
2013-12-25 05:13:00,10.4,7.6,30.30,SSE,165,2.0,4.0,88,0.00,,,0.00,0,Wunderground v.1.15,2013-12-25 11:13:00,
2013-12-25 05:14:00,10.4,7.6,30.30,SSE,165,2.0,4.0,88,0.00,,,0.00,0,Wunderground v.1.15,2013-12-25 11:14:00,
2013-12-25 05:15:00,10.4,7.6,30.30,SSE,165,2.0,4.0,88,0.00,,,0.00,0,Wunderground v.1.15,2013-12-25 11:15:00,
2013-12-25 05:16:00,10.4,7.6,30.30,SSE,165,2.0,4.0,88,0.00,,,0.00,0,Wunderground v.1.15,2013-12-25 11:16:00,
2013-12-25 05:19:00,10.4,7.6,30.29,SSE,165,2.0,4.0,88,0.00,,,0.00,0,Wunderground v.1.15,2013-12-25 11:19:00,
2013-12-25 05:20:00,10.4,7.6,30.29,SSE,165,2.0,2.0,88,0.00,,,0.00,0,Wunderground v.1.15,2013-12-25 11:20:00,
2013-12-25 05:21:00,10.4,7.6,30.29,SSE,165,1.0,4.0,88,0.00,,,0.00,0,Wunderground v.1.15,2013-12-25 11:21:00,
2013-12-25 05:25:00,10.5,7.6,30.29,SSE,165,2.0,5.0,88,0.00,,,0.00,0,Wunderground v.1.15,2013-12-25 11:25:00,
2013-12-25 05:26:00,10.5,7.6,30.29,SSE,165,2.0,5.0,88,0.00,,,0.00,0,Wunderground v.1.15,2013-12-25 11:26:00,
2013-12-25 05:27:00,10.5,7.6,30.29,SSE,165,2.0,5.0,88,0.00,,,0.00,0,Wunderground v.1.15,2013-12-25 11:27:00,
2013-12-25 05:28:00,10.5,7.6,30.29,SSE,165,2.0,5.0,88,0.00,,,0.00,0,Wunderground v.1.15,2013-12-25 11:28:00,
2013-12-25 05:30:00,10.5,7.6,30.29,SSE,165,2.0,4.0,88,0.00,,,0.00,0,Wunderground v.1.15,2013-12-25 11:30:00,
2013-12-25 05:33:00,10.5,7.6,30.29,SSE,165,2.0,5.0,88,0.00,,,0.00,0,Wunderground v.1.15,2013-12-25 11:33:00,
2013-12-25 05:37:00,10.5,7.6,30.29,SSE,165,2.0,5.0,88,0.00,,,0.00,0,Wunderground v.1.15,2013-12-25 11:37:00,
2013-12-25 05:39:00,10.5,7.6,30.29,SSE,165,2.0,5.0,88,0.00,,,0.00,0,Wunderground v.1.15,2013-12-25 11:39:00,
2013-12-25 05:43:00,10.6,8.0,30.29,SSE,165,2.0,5.0,89,0.00,,,0.00,0,Wunderground v.1.15,2013-12-25 11:43:00,
2013-12-25 05:47:00,10.7,8.1,30.28,SSE,165,3.0,5.0,89,0.00,,,0.00,0,Wunderground v.1.15,2013-12-25 11:47:00,
2013-12-25 05:48:00,10.6,8.0,30.29,SSE,165,3.0,5.0,89,0.00,,,0.00,0,Wunderground v.1.15,2013-12-25 11:48:00,
2013-12-25 05:49:00,10.6,8.0,30.28,SSE,165,3.0,5.0,89,0.00,,,0.00,0,Wunderground v.1.15,2013-12-25 11:49:00,
2013-12-25 05:50:00,10.7,8.1,30.28,SSE,165,3.0,3.0,89,0.00,,,0.00,0,Wunderground v.1.15,2013-12-25 11:50:00,
2013-12-25 05:52:00,10.7,8.1,30.28,SSE,165,3.0,3.0,89,0.00,,,0.00,0,Wunderground v.1.15,2013-12-25 11:52:00,
2013-12-25 05:54:00,10.7,8.1,30.28,SSE,165,3.0,5.0,89,0.00,,,0.00,0,Wunderground v.1.15,2013-12-25 11:54:00,
2013-12-25 05:56:00,10.7,8.1,30.28,SSE,165,3.0,5.0,89,0.00,,,0.00,0,Wunderground v.1.15,2013-12-25 11:56:00,
2013-12-25 05:57:00,10.7,8.1,30.28,SSE,165,2.0,5.0,89,0.00,,,0.00,0,Wunderground v.1.15,2013-12-25 11:57:00,
2013-12-25 05:58:00,10.8,8.2,30.28,SSE,165,3.0,5.0,89,0.00,,,0.00,0,Wunderground v.1.15,2013-12-25 11:58:00,
2013-12-25 06:00:00,10.8,8.2,30.28,SSE,165,2.0,4.0,89,0.00,,,0.00,0,Wunderground v.1.15,2013-12-25 12:00:00,
2013-12-25 06:03:00,10.8,8.2,30.28,SSE,165,3.0,4.0,89,0.00,,,0.00,0,Wunderground v.1.15,2013-12-25 12:03:00,
2013-12-25 06:04:00,10.8,8.2,30.28,SSE,165,2.0,4.0,89,0.00,,,0.00,0,Wunderground v.1.15,2013-12-25 12:04:00,
2013-12-25 06:06:00,10.8,8.2,30.27,SSE,165,2.0,4.0,89,0.00,,,0.00,0,Wunderground v.1.15,2013-12-25 12:06:00,
2013-12-25 06:08:00,10.9,8.3,30.28,SSE,165,2.0,4.0,89,0.00,,,0.00,0,Wunderground v.1.15,2013-12-25 12:08:00,
2013-12-25 06:11:00,10.9,8.3,30.28,SSE,165,1.0,2.0,89,0.00,,,0.00,0,Wunderground v.1.15,2013-12-25 12:11:00,
2013-12-25 06:12:00,10.9,8.3,30.28,SSE,165,1.0,2.0,89,0.00,,,0.00,0,Wunderground v.1.15,2013-12-25 12:12:00,
2013-12-25 06:14:00,10.9,8.3,30.28,SSE,165,1.0,4.0,89,0.00,,,0.00,0,Wunderground v.1.15,2013-12-25 12:14:00,
2013-12-25 06:15:00,11.0,8.4,30.28,SSE,165,1.0,4.0,89,0.00,,,0.00,0,Wunderground v.1.15,2013-12-25 12:15:00,
2013-12-25 06:16:00,10.9,8.3,30.28,SSE,165,1.0,4.0,89,0.00,,,0.00,0,Wunderground v.1.15,2013-12-25 12:16:00,
2013-12-25 06:17:00,11.0,8.4,30.28,SSE,165,1.0,5.0,89,0.00,,,0.00,0,Wunderground v.1.15,2013-12-25 12:17:00,
2013-12-25 06:18:00,11.0,8.4,30.28,SSE,165,2.0,5.0,89,0.00,,,0.00,0,Wunderground v.1.15,2013-12-25 12:18:00,
2013-12-25 06:19:00,11.0,8.4,30.28,SSE,165,2.0,5.0,89,0.00,,,0.00,0,Wunderground v.1.15,2013-12-25 12:19:00,
2013-12-25 06:20:00,11.0,8.4,30.28,SSE,165,2.0,2.0,89,0.00,,,0.00,0,Wunderground v.1.15,2013-12-25 12:20:00,
2013-12-25 06:21:00,11.1,8.5,30.28,SSE,165,2.0,4.0,89,0.00,,,0.00,0,Wunderground v.1.15,2013-12-25 12:21:00,
2013-12-25 06:24:00,11.2,8.6,30.28,SSE,165,2.0,4.0,89,0.00,,,0.00,0,Wunderground v.1.15,2013-12-25 12:24:00,
2013-12-25 06:26:00,11.2,8.6,30.28,SSE,165,3.0,5.0,89,0.00,,,0.00,0,Wunderground v.1.15,2013-12-25 12:26:00,
2013-12-25 06:28:00,11.3,8.7,30.28,SSE,165,3.0,5.0,89,0.00,,,0.00,0,Wunderground v.1.15,2013-12-25 12:28:00,
2013-12-25 06:29:00,11.3,8.7,30.28,SSE,165,3.0,5.0,89,0.00,,,0.00,0,Wunderground v.1.15,2013-12-25 12:29:00,
2013-12-25 06:30:00,11.3,8.7,30.28,SSE,165,3.0,3.0,89,0.00,,,0.00,0,Wunderground v.1.15,2013-12-25 12:30:00,
2013-12-25 06:35:00,11.4,8.8,30.28,SSE,165,2.0,4.0,89,0.00,,,0.00,0,Wunderground v.1.15,2013-12-25 12:35:00,
2013-12-25 06:36:00,11.4,8.8,30.28,SSE,165,2.0,4.0,89,0.00,,,0.00,0,Wunderground v.1.15,2013-12-25 12:36:00,
2013-12-25 06:37:00,11.4,8.8,30.28,SSE,165,2.0,4.0,89,0.00,,,0.00,0,Wunderground v.1.15,2013-12-25 12:37:00,
2013-12-25 06:38:00,11.4,8.8,30.28,SSE,165,2.0,4.0,89,0.00,,,0.00,0,Wunderground v.1.15,2013-12-25 12:38:00,
2013-12-25 06:40:00,11.5,8.9,30.28,SSE,165,2.0,2.0,89,0.00,,,0.00,0,Wunderground v.1.15,2013-12-25 12:40:00,
2013-12-25 06:42:00,11.5,8.9,30.28,SSE,165,2.0,2.0,89,0.00,,,0.00,0,Wunderground v.1.15,2013-12-25 12:42:00,
2013-12-25 06:43:00,11.5,8.9,30.28,SSE,165,2.0,2.0,89,0.00,,,0.00,0,Wunderground v.1.15,2013-12-25 12:43:00,
2013-12-25 06:45:00,11.6,9.0,30.28,SSE,165,2.0,2.0,89,0.00,,,0.00,0,Wunderground v.1.15,2013-12-25 12:45:00,
2013-12-25 06:48:00,11.6,9.0,30.28,SSE,165,3.0,4.0,89,0.00,,,0.00,0,Wunderground v.1.15,2013-12-25 12:48:00,
2013-12-25 06:53:00,11.7,9.1,30.28,South,169,3.0,5.0,89,0.00,,,0.00,0,Wunderground v.1.15,2013-12-25 12:53:00,
2013-12-25 06:54:00,11.7,9.1,30.28,South,169,3.0,5.0,89,0.00,,,0.00,0,Wunderground v.1.15,2013-12-25 12:54:00,
2013-12-25 06:56:00,11.8,9.2,30.28,South,182,3.0,5.0,89,0.00,,,0.00,0,Wunderground v.1.15,2013-12-25 12:56:00,
2013-12-25 06:58:00,11.8,9.2,30.28,South,169,4.0,9.0,89,0.00,,,0.00,0,Wunderground v.1.15,2013-12-25 12:58:00,
2013-12-25 06:59:00,11.8,9.2,30.28,South,169,4.0,9.0,89,0.00,,,0.00,0,Wunderground v.1.15,2013-12-25 12:59:00,
2013-12-25 07:00:00,11.8,9.2,30.28,South,169,4.0,4.0,89,0.00,,,0.00,0,Wunderground v.1.15,2013-12-25 13:00:00,
2013-12-25 07:01:00,11.8,9.2,30.28,South,169,3.0,4.0,89,0.00,,,0.00,0,Wunderground v.1.15,2013-12-25 13:01:00,
2013-12-25 07:03:00,11.8,9.2,30.28,South,170,3.0,4.0,89,0.00,,,0.00,0,Wunderground v.1.15,2013-12-25 13:03:00,
2013-12-25 07:05:00,11.9,9.3,30.28,South,170,3.0,4.0,89,0.00,,,0.00,0,Wunderground v.1.15,2013-12-25 13:05:00,
2013-12-25 07:06:00,11.8,9.2,30.28,South,170,3.0,4.0,89,0.00,,,0.00,0,Wunderground v.1.15,2013-12-25 13:06:00,
2013-12-25 07:08:00,11.9,9.3,30.28,South,170,2.0,4.0,89,0.00,,,0.00,0,Wunderground v.1.15,2013-12-25 13:08:00,
2013-12-25 07:09:00,11.9,9.3,30.28,SSE,162,2.0,6.0,89,0.00,,,0.00,0,Wunderground v.1.15,2013-12-25 13:09:00,
2013-12-25 07:10:00,11.9,9.3,30.28,South,170,3.0,6.0,89,0.00,,,0.00,0,Wunderground v.1.15,2013-12-25 13:10:00,
2013-12-25 07:13:00,11.9,9.3,30.28,South,170,3.0,6.0,89,0.00,,,0.00,0,Wunderground v.1.15,2013-12-25 13:13:00,
2013-12-25 07:14:00,11.9,9.3,30.28,South,170,3.0,6.0,89,0.00,,,0.00,0,Wunderground v.1.15,2013-12-25 13:14:00,
2013-12-25 07:15:00,12.0,9.4,30.28,South,170,3.0,6.0,89,0.00,,,0.00,0,Wunderground v.1.15,2013-12-25 13:15:00,
2013-12-25 07:16:00,12.0,9.4,30.28,South,171,4.0,6.0,89,0.00,,,0.00,0,Wunderground v.1.15,2013-12-25 13:16:00,
2013-12-25 07:18:00,12.0,9.4,30.28,SSE,164,4.0,6.0,89,0.00,,,0.00,0,Wunderground v.1.15,2013-12-25 13:18:00,
2013-12-25 07:19:00,12.0,9.4,30.28,SSE,164,4.0,6.0,89,0.00,,,0.00,0,Wunderground v.1.15,2013-12-25 13:19:00,
2013-12-25 07:21:00,12.0,9.4,30.28,SSE,163,3.0,5.0,89,0.00,,,0.00,0,Wunderground v.1.15,2013-12-25 13:21:00,
2013-12-25 07:22:00,12.0,9.4,30.28,SSW,203,3.0,5.0,89,0.00,,,0.00,0,Wunderground v.1.15,2013-12-25 13:22:00,
2013-12-25 07:25:00,12.0,9.4,30.28,South,183,3.0,5.0,89,0.00,,,0.00,0,Wunderground v.1.15,2013-12-25 13:25:00,
2013-12-25 07:26:00,12.1,9.5,30.28,South,183,3.0,5.0,89,0.00,,,0.00,0,Wunderground v.1.15,2013-12-25 13:26:00,
2013-12-25 07:27:00,12.1,9.5,30.28,South,171,3.0,6.0,89,0.00,,,0.00,0,Wunderground v.1.15,2013-12-25 13:27:00,
2013-12-25 07:29:00,12.1,9.5,30.28,South,169,3.0,6.0,89,0.00,,,0.00,0,Wunderground v.1.15,2013-12-25 13:29:00,
2013-12-25 07:31:00,12.1,9.5,30.28,South,171,3.0,7.0,89,0.00,,,0.00,0,Wunderground v.1.15,2013-12-25 13:31:00,
2013-12-25 07:32:00,12.1,9.5,30.28,South,171,4.0,7.0,89,0.00,,,0.00,0,Wunderground v.1.15,2013-12-25 13:32:00,
2013-12-25 07:33:00,12.1,9.5,30.28,South,171,4.0,7.0,89,0.00,,,0.00,0,Wunderground v.1.15,2013-12-25 13:33:00,
2013-12-25 07:34:00,12.2,9.6,30.28,South,171,4.0,7.0,89,0.00,,,0.00,0,Wunderground v.1.15,2013-12-25 13:34:00,
2013-12-25 07:37:00,12.2,9.6,30.28,South,171,3.0,7.0,89,0.00,,,0.00,0,Wunderground v.1.15,2013-12-25 13:37:00,
2013-12-25 07:38:00,12.2,12.0,30.28,South,171,3.0,7.0,99,0.00,,,0.00,0,Wunderground v.1.15,2013-12-25 13:38:00,
2013-12-25 07:39:00,12.2,12.0,30.28,South,171,3.0,7.0,99,0.00,,,0.00,0,Wunderground v.1.15,2013-12-25 13:39:00,
2013-12-25 07:40:00,12.2,12.0,30.28,South,171,3.0,3.0,99,0.00,,,0.00,0,Wunderground v.1.15,2013-12-25 13:40:00,
2013-12-25 07:42:00,12.2,9.8,30.28,South,169,3.0,4.0,90,0.00,,,0.00,0,Wunderground v.1.15,2013-12-25 13:42:00,
2013-12-25 07:43:00,12.2,9.8,30.28,South,169,3.0,4.0,90,0.00,,,0.00,0,Wunderground v.1.15,2013-12-25 13:43:00,
2013-12-25 07:46:00,12.3,9.9,30.28,South,170,4.0,6.0,90,0.00,,,0.00,0,Wunderground v.1.15,2013-12-25 13:46:00,
2013-12-25 07:48:00,12.3,9.9,30.28,South,170,4.0,6.0,90,0.00,,,0.00,0,Wunderground v.1.15,2013-12-25 13:48:00,
2013-12-25 07:50:00,12.3,9.9,30.28,South,170,4.0,4.0,90,0.00,,,0.00,0,Wunderground v.1.15,2013-12-25 13:50:00,
2013-12-25 07:54:00,12.4,10.0,30.28,South,170,3.0,4.0,90,0.00,,,0.00,0,Wunderground v.1.15,2013-12-25 13:54:00,
2013-12-25 07:55:00,12.4,10.0,30.28,South,178,3.0,4.0,90,0.00,,,0.00,0,Wunderground v.1.15,2013-12-25 13:55:00,
2013-12-25 07:57:00,12.4,10.0,30.28,SSE,167,3.0,4.0,90,0.00,,,0.00,5,Wunderground v.1.15,2013-12-25 13:57:00,
2013-12-25 07:58:00,12.4,10.0,30.28,SSE,165,3.0,4.0,90,0.00,,,0.00,5,Wunderground v.1.15,2013-12-25 13:58:00,
2013-12-25 08:01:00,12.5,10.1,30.28,SSE,165,3.0,5.0,90,0.00,,,0.00,5,Wunderground v.1.15,2013-12-25 14:01:00,
2013-12-25 08:05:00,12.5,10.1,30.28,SSE,165,3.0,5.0,90,0.00,,,0.00,7,Wunderground v.1.15,2013-12-25 14:05:00,
2013-12-25 08:06:00,12.5,10.1,30.28,SSE,165,3.0,5.0,90,0.00,,,0.00,7,Wunderground v.1.15,2013-12-25 14:06:00,
2013-12-25 08:08:00,12.5,10.1,30.28,SSE,165,2.0,5.0,90,0.00,,,0.00,7,Wunderground v.1.15,2013-12-25 14:08:00,
2013-12-25 08:09:00,12.5,10.1,30.28,SSE,165,2.0,5.0,90,0.00,,,0.00,7,Wunderground v.1.15,2013-12-25 14:09:00,
2013-12-25 08:10:00,12.5,10.1,30.28,SSE,165,2.0,2.0,90,0.00,,,0.00,7,Wunderground v.1.15,2013-12-25 14:10:00,
2013-12-25 08:11:00,12.5,10.1,30.28,SSE,165,1.0,2.0,90,0.00,,,0.00,7,Wunderground v.1.15,2013-12-25 14:11:00,
2013-12-25 08:14:00,12.5,10.1,30.28,SSE,165,2.0,4.0,90,0.00,,,0.00,7,Wunderground v.1.15,2013-12-25 14:14:00,
2013-12-25 08:15:00,12.5,10.1,30.29,SSE,165,1.0,4.0,90,0.00,,,0.00,7,Wunderground v.1.15,2013-12-25 14:15:00,
2013-12-25 08:17:00,12.5,10.1,30.29,SSE,165,2.0,4.0,90,0.00,,,0.00,7,Wunderground v.1.15,2013-12-25 14:17:00,
2013-12-25 08:18:00,12.5,10.1,30.29,SSE,165,2.0,4.0,90,0.00,,,0.00,7,Wunderground v.1.15,2013-12-25 14:18:00,
2013-12-25 08:19:00,12.5,10.1,30.29,SSE,165,2.0,4.0,90,0.00,,,0.00,9,Wunderground v.1.15,2013-12-25 14:19:00,
2013-12-25 08:21:00,12.6,10.2,30.29,SSE,165,2.0,5.0,90,0.00,,,0.00,16,Wunderground v.1.15,2013-12-25 14:21:00,
2013-12-25 08:24:00,12.6,10.2,30.29,SSE,165,3.0,5.0,90,0.00,,,0.00,18,Wunderground v.1.15,2013-12-25 14:24:00,
2013-12-25 08:26:00,12.6,10.2,30.28,SSE,165,3.0,5.0,90,0.00,,,0.00,16,Wunderground v.1.15,2013-12-25 14:26:00,
2013-12-25 08:27:00,12.7,10.3,30.29,SSE,165,3.0,5.0,90,0.00,,,0.00,19,Wunderground v.1.15,2013-12-25 14:27:00,
2013-12-25 08:29:00,12.7,10.3,30.29,SSE,165,3.0,5.0,90,0.00,,,0.00,21,Wunderground v.1.15,2013-12-25 14:29:00,
2013-12-25 08:33:00,12.8,10.4,30.29,SSE,165,2.0,3.0,90,0.00,,,0.00,23,Wunderground v.1.15,2013-12-25 14:33:00,
2013-12-25 08:35:00,12.8,10.4,30.29,SSE,165,2.0,4.0,90,0.00,,,0.00,25,Wunderground v.1.15,2013-12-25 14:35:00,
2013-12-25 08:36:00,12.8,10.4,30.29,SSE,165,2.0,4.0,90,0.00,,,0.00,25,Wunderground v.1.15,2013-12-25 14:36:00,
2013-12-25 08:38:00,12.8,10.4,30.29,SSE,165,1.0,4.0,90,0.00,,,0.00,26,Wunderground v.1.15,2013-12-25 14:38:00,
2013-12-25 08:39:00,12.8,10.4,30.29,SSE,165,1.0,4.0,90,0.00,,,0.00,28,Wunderground v.1.15,2013-12-25 14:39:00,
2013-12-25 08:40:00,12.9,10.5,30.29,SSE,165,1.0,1.0,90,0.00,,,0.00,30,Wunderground v.1.15,2013-12-25 14:40:00,
2013-12-25 08:41:00,12.9,10.5,30.29,SSE,165,1.0,1.0,90,0.00,,,0.00,30,Wunderground v.1.15,2013-12-25 14:41:00,
2013-12-25 08:43:00,13.0,10.6,30.29,SSE,165,1.0,1.0,90,0.00,,,0.00,42,Wunderground v.1.15,2013-12-25 14:43:00,
2013-12-25 08:44:00,13.0,10.6,30.29,SSE,165,1.0,1.0,90,0.00,,,0.00,46,Wunderground v.1.15,2013-12-25 14:44:00,
2013-12-25 08:47:00,13.0,10.6,30.29,SSE,165,1.0,4.0,90,0.00,,,0.00,49,Wunderground v.1.15,2013-12-25 14:47:00,
2013-12-25 08:48:00,13.0,10.6,30.29,SSE,165,1.0,4.0,90,0.00,,,0.00,46,Wunderground v.1.15,2013-12-25 14:48:00,
2013-12-25 08:49:00,13.0,10.6,30.29,SSE,165,1.0,4.0,90,0.00,,,0.00,46,Wunderground v.1.15,2013-12-25 14:49:00,
2013-12-25 08:50:00,13.1,10.7,30.29,SSE,164,2.0,6.0,90,0.00,,,0.00,44,Wunderground v.1.15,2013-12-25 14:50:00,
2013-12-25 08:53:00,13.1,10.7,30.29,SSE,164,3.0,6.0,90,0.00,,,0.00,39,Wunderground v.1.15,2013-12-25 14:53:00,
2013-12-25 08:54:00,13.1,10.7,30.29,SSE,164,3.0,6.0,90,0.00,,,0.00,39,Wunderground v.1.15,2013-12-25 14:54:00,
2013-12-25 08:58:00,13.2,10.8,30.29,SSE,166,4.0,6.0,90,0.00,,,0.00,44,Wunderground v.1.15,2013-12-25 14:58:00,
2013-12-25 09:00:00,13.2,10.8,30.29,South,173,5.0,6.0,90,0.00,,,0.00,44,Wunderground v.1.15,2013-12-25 15:00:00,
2013-12-25 09:01:00,13.2,10.8,30.29,South,174,5.0,6.0,90,0.00,,,0.00,42,Wunderground v.1.15,2013-12-25 15:01:00,
2013-12-25 09:02:00,13.2,10.8,30.29,SSE,158,5.0,6.0,90,0.00,,,0.00,46,Wunderground v.1.15,2013-12-25 15:02:00,
2013-12-25 09:05:00,13.3,10.9,30.29,SSE,161,4.0,6.0,90,0.00,,,0.00,46,Wunderground v.1.15,2013-12-25 15:05:00,
2013-12-25 09:07:00,13.3,10.9,30.29,SSE,161,4.0,6.0,90,0.00,,,0.00,46,Wunderground v.1.15,2013-12-25 15:07:00,
2013-12-25 09:08:00,13.3,10.9,30.28,SSE,151,4.0,6.0,90,0.00,,,0.00,51,Wunderground v.1.15,2013-12-25 15:08:00,
2013-12-25 09:09:00,13.4,11.0,30.28,SSE,155,4.0,6.0,90,0.00,,,0.00,54,Wunderground v.1.15,2013-12-25 15:09:00,
2013-12-25 09:10:00,13.4,11.0,30.28,SSE,151,4.0,6.0,90,0.00,,,0.00,58,Wunderground v.1.15,2013-12-25 15:10:00,
2013-12-25 09:11:00,13.4,11.0,30.28,SSE,153,4.0,7.0,90,0.00,,,0.00,60,Wunderground v.1.15,2013-12-25 15:11:00,
2013-12-25 09:15:00,13.5,11.1,30.28,SSE,149,5.0,7.0,90,0.00,,,0.00,60,Wunderground v.1.15,2013-12-25 15:15:00,
2013-12-25 09:16:00,13.5,11.1,30.28,SSE,149,5.0,7.0,90,0.00,,,0.00,62,Wunderground v.1.15,2013-12-25 15:16:00,
2013-12-25 09:20:00,13.6,11.2,30.28,SSE,157,4.0,4.0,90,0.00,,,0.00,69,Wunderground v.1.15,2013-12-25 15:20:00,
2013-12-25 09:21:00,13.6,11.2,30.28,SE,142,4.0,6.0,90,0.00,,,0.00,74,Wunderground v.1.15,2013-12-25 15:21:00,
2013-12-25 09:24:00,13.6,11.2,30.28,SE,139,4.0,6.0,90,0.00,,,0.00,88,Wunderground v.1.15,2013-12-25 15:24:00,
2013-12-25 09:25:00,13.7,11.3,30.28,SE,141,4.0,6.0,90,0.00,,,0.00,98,Wunderground v.1.15,2013-12-25 15:25:00,
2013-12-25 09:26:00,13.7,11.3,30.28,SE,141,3.0,6.0,90,0.00,,,0.00,116,Wunderground v.1.15,2013-12-25 15:26:00,
2013-12-25 09:30:00,13.9,11.5,30.28,SE,146,3.0,3.0,90,0.00,,,0.00,172,Wunderground v.1.15,2013-12-25 15:30:00,
2013-12-25 09:32:00,14.0,11.6,30.28,SE,146,2.0,4.0,90,0.00,,,0.00,149,Wunderground v.1.15,2013-12-25 15:32:00,
2013-12-25 09:33:00,14.1,11.7,30.28,SE,146,2.0,4.0,90,0.00,,,0.00,142,Wunderground v.1.15,2013-12-25 15:33:00,
2013-12-25 09:34:00,14.1,11.7,30.28,SE,146,2.0,4.0,90,0.00,,,0.00,128,Wunderground v.1.15,2013-12-25 15:34:00,
2013-12-25 09:35:00,14.1,11.7,30.28,SE,146,2.0,4.0,90,0.00,,,0.00,116,Wunderground v.1.15,2013-12-25 15:35:00,
2013-12-25 09:36:00,14.2,11.8,30.28,SE,146,2.0,4.0,90,0.00,,,0.00,109,Wunderground v.1.15,2013-12-25 15:36:00,
2013-12-25 09:38:00,14.3,11.9,30.28,SE,146,2.0,4.0,90,0.00,,,0.00,88,Wunderground v.1.15,2013-12-25 15:38:00,
2013-12-25 09:40:00,14.4,12.0,30.28,SE,146,2.0,4.0,90,0.00,,,0.00,79,Wunderground v.1.15,2013-12-25 15:40:00,
2013-12-25 09:43:00,14.5,12.1,30.28,SE,146,2.0,5.0,90,0.00,,,0.00,72,Wunderground v.1.15,2013-12-25 15:43:00,
2013-12-25 09:44:00,14.6,12.2,30.28,SSE,147,2.0,5.0,90,0.00,,,0.00,74,Wunderground v.1.15,2013-12-25 15:44:00,
2013-12-25 09:45:00,14.6,12.2,30.28,SSE,147,2.0,5.0,90,0.00,,,0.00,77,Wunderground v.1.15,2013-12-25 15:45:00,
2013-12-25 09:46:00,14.6,12.2,30.28,SSE,147,2.0,5.0,90,0.00,,,0.00,81,Wunderground v.1.15,2013-12-25 15:46:00,
2013-12-25 09:47:00,14.6,12.2,30.28,SSE,147,2.0,5.0,90,0.00,,,0.00,83,Wunderground v.1.15,2013-12-25 15:47:00,
2013-12-25 09:48:00,14.7,12.3,30.28,SSE,147,3.0,5.0,90,0.00,,,0.00,83,Wunderground v.1.15,2013-12-25 15:48:00,
2013-12-25 09:50:00,14.8,12.4,30.28,SSE,147,3.0,3.0,90,0.00,,,0.00,91,Wunderground v.1.15,2013-12-25 15:50:00,
2013-12-25 09:52:00,14.8,12.4,30.28,SSE,147,3.0,3.0,90,0.00,,,0.00,93,Wunderground v.1.15,2013-12-25 15:52:00,
2013-12-25 09:53:00,14.9,12.5,30.28,SSE,147,2.0,3.0,90,0.00,,,0.00,97,Wunderground v.1.15,2013-12-25 15:53:00,
2013-12-25 09:56:00,14.9,12.5,30.28,SSE,149,2.0,4.0,90,0.00,,,0.00,95,Wunderground v.1.15,2013-12-25 15:56:00,
2013-12-25 09:58:00,15.0,12.6,30.28,South,182,3.0,5.0,90,0.00,,,0.00,90,Wunderground v.1.15,2013-12-25 15:58:00,
2013-12-25 09:59:00,15.0,12.6,30.28,South,182,3.0,5.0,90,0.00,,,0.00,90,Wunderground v.1.15,2013-12-25 15:59:00,
2013-12-25 10:03:00,15.2,12.8,30.28,South,181,3.0,3.0,90,0.00,,,0.00,98,Wunderground v.1.15,2013-12-25 16:03:00,
2013-12-25 10:04:00,15.2,12.8,30.28,South,181,3.0,3.0,90,0.00,,,0.00,98,Wunderground v.1.15,2013-12-25 16:04:00,
2013-12-25 10:05:00,15.2,12.8,30.28,South,181,3.0,3.0,90,0.00,,,0.00,102,Wunderground v.1.15,2013-12-25 16:05:00,
2013-12-25 10:06:00,15.3,12.9,30.28,South,181,3.0,3.0,90,0.00,,,0.00,105,Wunderground v.1.15,2013-12-25 16:06:00,
2013-12-25 10:08:00,15.3,12.9,30.28,South,181,2.0,3.0,90,0.00,,,0.00,100,Wunderground v.1.15,2013-12-25 16:08:00,
2013-12-25 10:10:00,15.4,13.0,30.28,South,181,2.0,3.0,90,0.00,,,0.00,90,Wunderground v.1.15,2013-12-25 16:10:00,
2013-12-25 10:11:00,15.5,13.1,30.28,South,181,2.0,3.0,90,0.00,,,0.00,84,Wunderground v.1.15,2013-12-25 16:11:00,
2013-12-25 10:12:00,15.5,13.1,30.28,South,181,2.0,3.0,90,0.00,,,0.00,79,Wunderground v.1.15,2013-12-25 16:12:00,
2013-12-25 10:13:00,15.5,13.1,30.28,South,181,2.0,3.0,90,0.00,,,0.00,79,Wunderground v.1.15,2013-12-25 16:13:00,
2013-12-25 10:14:00,15.5,13.1,30.28,South,181,2.0,3.0,90,0.00,,,0.00,72,Wunderground v.1.15,2013-12-25 16:14:00,
2013-12-25 10:16:00,15.6,13.2,30.28,South,181,2.0,3.0,90,0.00,,,0.00,83,Wunderground v.1.15,2013-12-25 16:16:00,
2013-12-25 10:17:00,15.6,13.2,30.28,South,181,2.0,3.0,90,0.00,,,0.00,93,Wunderground v.1.15,2013-12-25 16:17:00,
2013-12-25 10:21:00,15.8,13.4,30.28,South,181,1.0,2.0,90,0.00,,,0.00,105,Wunderground v.1.15,2013-12-25 16:21:00,
2013-12-25 10:22:00,15.8,13.4,30.27,South,181,2.0,3.0,90,0.00,,,0.00,120,Wunderground v.1.15,2013-12-25 16:22:00,
2013-12-25 10:23:00,15.8,13.4,30.27,South,181,2.0,4.0,90,0.00,,,0.00,132,Wunderground v.1.15,2013-12-25 16:23:00,
2013-12-25 10:25:00,15.9,13.5,30.27,South,181,2.0,4.0,90,0.00,,,0.00,134,Wunderground v.1.15,2013-12-25 16:25:00,
2013-12-25 10:26:00,16.0,13.6,30.27,South,181,2.0,4.0,90,0.00,,,0.00,135,Wunderground v.1.15,2013-12-25 16:26:00,
2013-12-25 10:28:00,16.0,13.6,30.27,South,180,2.0,4.0,90,0.00,,,0.00,142,Wunderground v.1.15,2013-12-25 16:28:00,
2013-12-25 10:30:00,16.1,13.7,30.27,South,180,2.0,3.0,90,0.00,,,0.00,146,Wunderground v.1.15,2013-12-25 16:30:00,
2013-12-25 10:31:00,16.2,13.8,30.27,South,180,2.0,3.0,90,0.00,,,0.00,139,Wunderground v.1.15,2013-12-25 16:31:00,
2013-12-25 10:32:00,16.2,13.8,30.27,South,180,2.0,3.0,90,0.00,,,0.00,134,Wunderground v.1.15,2013-12-25 16:32:00,
2013-12-25 10:33:00,16.2,13.8,30.27,South,180,2.0,3.0,90,0.00,,,0.00,134,Wunderground v.1.15,2013-12-25 16:33:00,
2013-12-25 10:34:00,16.3,13.9,30.27,South,180,2.0,3.0,90,0.00,,,0.00,134,Wunderground v.1.15,2013-12-25 16:34:00,
2013-12-25 10:37:00,16.4,14.0,30.27,South,180,2.0,3.0,90,0.00,,,0.00,139,Wunderground v.1.15,2013-12-25 16:37:00,
2013-12-25 10:38:00,16.5,14.3,30.27,South,180,2.0,3.0,91,0.00,,,0.00,139,Wunderground v.1.15,2013-12-25 16:38:00,
2013-12-25 10:39:00,16.6,14.4,30.27,South,180,1.0,3.0,91,0.00,,,0.00,137,Wunderground v.1.15,2013-12-25 16:39:00,
2013-12-25 10:42:00,16.7,14.3,30.27,South,180,1.0,4.0,90,0.00,,,0.00,141,Wunderground v.1.15,2013-12-25 16:42:00,
2013-12-25 10:43:00,16.8,14.4,30.26,South,180,1.0,4.0,90,0.00,,,0.00,142,Wunderground v.1.15,2013-12-25 16:43:00,
2013-12-25 10:44:00,16.8,14.4,30.26,South,180,1.0,4.0,90,0.00,,,0.00,144,Wunderground v.1.15,2013-12-25 16:44:00,
2013-12-25 10:46:00,16.9,14.7,30.26,South,180,1.0,4.0,91,0.00,,,0.00,148,Wunderground v.1.15,2013-12-25 16:46:00,
2013-12-25 10:47:00,17.0,14.6,30.26,South,180,1.0,4.0,90,0.00,,,0.00,148,Wunderground v.1.15,2013-12-25 16:47:00,
2013-12-25 10:49:00,17.0,14.6,30.26,South,180,2.0,4.0,90,0.00,,,0.00,148,Wunderground v.1.15,2013-12-25 16:49:00,
2013-12-25 10:50:00,17.1,14.7,30.26,South,180,2.0,2.0,90,0.00,,,0.00,149,Wunderground v.1.15,2013-12-25 16:50:00,
2013-12-25 10:54:00,17.1,14.7,30.26,South,180,2.0,5.0,90,0.00,,,0.00,169,Wunderground v.1.15,2013-12-25 16:54:00,
2013-12-25 10:55:00,17.2,14.8,30.26,South,180,2.0,5.0,90,0.00,,,0.00,169,Wunderground v.1.15,2013-12-25 16:55:00,
2013-12-25 10:56:00,17.2,14.8,30.26,South,180,2.0,5.0,90,0.00,,,0.00,171,Wunderground v.1.15,2013-12-25 16:56:00,
2013-12-25 10:57:00,17.2,14.8,30.26,South,180,2.0,5.0,90,0.00,,,0.00,174,Wunderground v.1.15,2013-12-25 16:57:00,
2013-12-25 10:58:00,17.3,14.9,30.26,South,180,2.0,5.0,90,0.00,,,0.00,172,Wunderground v.1.15,2013-12-25 16:58:00,
2013-12-25 11:00:00,17.3,14.9,30.25,South,180,3.0,5.0,90,0.00,,,0.00,171,Wunderground v.1.15,2013-12-25 17:00:00,
2013-12-25 11:01:00,17.4,15.0,30.25,South,180,3.0,5.0,90,0.00,,,0.00,172,Wunderground v.1.15,2013-12-25 17:01:00,
2013-12-25 11:04:00,17.5,15.1,30.25,South,180,2.0,5.0,90,0.00,,,0.00,178,Wunderground v.1.15,2013-12-25 17:04:00,
2013-12-25 11:05:00,17.5,15.1,30.25,South,180,2.0,5.0,90,0.00,,,0.00,181,Wunderground v.1.15,2013-12-25 17:05:00,
2013-12-25 11:07:00,17.6,15.2,30.25,South,180,2.0,5.0,90,0.00,,,0.00,185,Wunderground v.1.15,2013-12-25 17:07:00,
2013-12-25 11:09:00,17.8,15.4,30.25,South,180,2.0,5.0,90,0.00,,,0.00,193,Wunderground v.1.15,2013-12-25 17:09:00,
2013-12-25 11:11:00,17.9,15.5,30.25,South,180,2.0,3.0,90,0.00,,,0.00,209,Wunderground v.1.15,2013-12-25 17:11:00,
2013-12-25 11:12:00,17.9,15.5,30.25,South,179,2.0,5.0,90,0.00,,,0.00,214,Wunderground v.1.15,2013-12-25 17:12:00,
2013-12-25 11:13:00,17.9,15.5,30.25,South,179,3.0,5.0,90,0.00,,,0.00,218,Wunderground v.1.15,2013-12-25 17:13:00,
2013-12-25 11:18:00,18.1,15.7,30.25,South,179,3.0,5.0,90,0.00,,,0.00,221,Wunderground v.1.15,2013-12-25 17:18:00,
2013-12-25 11:20:00,18.2,15.8,30.25,South,180,3.0,3.0,90,0.00,,,0.00,221,Wunderground v.1.15,2013-12-25 17:20:00,
2013-12-25 11:21:00,18.2,15.8,30.25,South,180,3.0,4.0,90,0.00,,,0.00,216,Wunderground v.1.15,2013-12-25 17:21:00,
2013-12-25 11:22:00,18.2,15.8,30.25,South,178,3.0,5.0,90,0.00,,,0.00,207,Wunderground v.1.15,2013-12-25 17:22:00,
2013-12-25 11:23:00,18.3,15.9,30.25,South,178,3.0,5.0,90,0.00,,,0.00,207,Wunderground v.1.15,2013-12-25 17:23:00,
2013-12-25 11:25:00,18.3,15.9,30.25,South,178,3.0,5.0,90,0.00,,,0.00,209,Wunderground v.1.15,2013-12-25 17:25:00,
2013-12-25 11:26:00,18.3,15.9,30.25,South,177,4.0,5.0,90,0.00,,,0.00,206,Wunderground v.1.15,2013-12-25 17:26:00,
2013-12-25 11:28:00,18.4,16.0,30.25,South,177,4.0,5.0,90,0.00,,,0.00,193,Wunderground v.1.15,2013-12-25 17:28:00,
2013-12-25 11:30:00,18.5,16.1,30.25,South,177,4.0,4.0,90,0.00,,,0.00,186,Wunderground v.1.15,2013-12-25 17:30:00,
2013-12-25 11:32:00,18.5,16.1,30.25,South,177,4.0,4.0,90,0.00,,,0.00,181,Wunderground v.1.15,2013-12-25 17:32:00,
2013-12-25 11:33:00,18.5,16.1,30.25,South,177,4.0,4.0,90,0.00,,,0.00,174,Wunderground v.1.15,2013-12-25 17:33:00,
2013-12-25 11:34:00,18.6,16.2,30.24,South,177,4.0,5.0,90,0.00,,,0.00,179,Wunderground v.1.15,2013-12-25 17:34:00,
2013-12-25 11:36:00,18.6,15.9,30.25,SW,232,4.0,5.0,89,0.00,,,0.00,181,Wunderground v.1.15,2013-12-25 17:36:00,
2013-12-25 11:38:00,18.7,16.3,30.25,SSW,202,4.0,5.0,90,0.00,,,0.00,211,Wunderground v.1.15,2013-12-25 17:38:00,
2013-12-25 11:39:00,18.7,16.3,30.25,SSW,202,4.0,5.0,90,0.00,,,0.00,211,Wunderground v.1.15,2013-12-25 17:39:00,
2013-12-25 11:40:00,18.7,16.3,30.24,SSW,193,4.0,4.0,90,0.00,,,0.00,236,Wunderground v.1.15,2013-12-25 17:40:00,
2013-12-25 11:43:00,18.8,16.1,30.24,South,184,4.0,5.0,89,0.00,,,0.00,250,Wunderground v.1.15,2013-12-25 17:43:00,
2013-12-25 11:44:00,18.9,16.2,30.24,South,185,4.0,5.0,89,0.00,,,0.00,255,Wunderground v.1.15,2013-12-25 17:44:00,
2013-12-25 11:45:00,18.9,16.5,30.24,South,185,4.0,5.0,90,0.00,,,0.00,239,Wunderground v.1.15,2013-12-25 17:45:00,
2013-12-25 11:49:00,19.3,16.8,30.24,South,185,3.0,5.0,90,0.00,,,0.00,239,Wunderground v.1.15,2013-12-25 17:49:00,
2013-12-25 11:50:00,19.3,16.8,30.24,SSW,199,3.0,4.0,90,0.00,,,0.00,251,Wunderground v.1.15,2013-12-25 17:50:00,
2013-12-25 11:52:00,19.4,16.7,30.24,SSW,196,3.0,4.0,89,0.00,,,0.00,209,Wunderground v.1.15,2013-12-25 17:52:00,
2013-12-25 11:53:00,19.5,16.8,30.24,SSW,199,3.0,4.0,89,0.00,,,0.00,190,Wunderground v.1.15,2013-12-25 17:53:00,
2013-12-25 11:54:00,19.5,16.8,30.24,South,183,3.0,4.0,89,0.00,,,0.00,193,Wunderground v.1.15,2013-12-25 17:54:00,
2013-12-25 11:55:00,19.5,16.8,30.24,South,178,3.0,5.0,89,0.00,,,0.00,213,Wunderground v.1.15,2013-12-25 17:55:00,
2013-12-25 11:58:00,19.6,16.9,30.24,South,178,4.0,5.0,89,0.00,,,0.00,225,Wunderground v.1.15,2013-12-25 17:58:00,
2013-12-25 11:59:00,19.6,16.9,30.24,South,185,4.0,5.0,89,0.00,,,0.00,227,Wunderground v.1.15,2013-12-25 17:59:00,
2013-12-25 12:01:00,19.7,17.0,30.23,South,169,4.0,4.0,89,0.00,,,0.00,207,Wunderground v.1.15,2013-12-25 18:01:00,
2013-12-25 12:02:00,19.6,16.9,30.23,SSE,168,4.0,4.0,89,0.00,,,0.00,216,Wunderground v.1.15,2013-12-25 18:02:00,
2013-12-25 12:03:00,19.7,17.0,30.23,SSE,168,4.0,4.0,89,0.00,,,0.00,248,Wunderground v.1.15,2013-12-25 18:03:00,
2013-12-25 12:04:00,19.7,17.0,30.23,SSE,168,4.0,4.0,89,0.00,,,0.00,251,Wunderground v.1.15,2013-12-25 18:04:00,
2013-12-25 12:06:00,19.7,17.0,30.23,South,176,4.0,4.0,89,0.00,,,0.00,253,Wunderground v.1.15,2013-12-25 18:06:00,
2013-12-25 12:09:00,20.0,17.3,30.23,South,175,3.0,4.0,89,0.00,,,0.00,255,Wunderground v.1.15,2013-12-25 18:09:00,
2013-12-25 12:12:00,20.2,17.5,30.23,South,175,2.0,3.0,89,0.00,,,0.00,279,Wunderground v.1.15,2013-12-25 18:12:00,
2013-12-25 12:13:00,20.2,17.5,30.22,South,175,2.0,3.0,89,0.00,,,0.00,269,Wunderground v.1.15,2013-12-25 18:13:00,
2013-12-25 12:14:00,20.3,17.6,30.22,South,175,2.0,4.0,89,0.00,,,0.00,267,Wunderground v.1.15,2013-12-25 18:14:00,
2013-12-25 12:17:00,20.4,17.7,30.22,South,175,2.0,7.0,89,0.00,,,0.00,216,Wunderground v.1.15,2013-12-25 18:17:00,
2013-12-25 12:20:00,20.5,17.8,30.22,South,178,3.0,3.0,89,0.00,,,0.00,230,Wunderground v.1.15,2013-12-25 18:20:00,
2013-12-25 12:21:00,20.5,17.8,30.22,South,180,3.0,4.0,89,0.00,,,0.00,236,Wunderground v.1.15,2013-12-25 18:21:00,
2013-12-25 12:22:00,20.5,17.8,30.22,SSW,194,3.0,6.0,89,0.00,,,0.00,237,Wunderground v.1.15,2013-12-25 18:22:00,
2013-12-25 12:23:00,20.5,17.8,30.22,SSW,193,3.0,6.0,89,0.00,,,0.00,239,Wunderground v.1.15,2013-12-25 18:23:00,
2013-12-25 12:24:00,20.6,17.6,30.22,SSW,192,3.0,6.0,88,0.00,,,0.00,248,Wunderground v.1.15,2013-12-25 18:24:00,
2013-12-25 12:29:00,20.7,17.7,30.22,SSW,192,4.0,6.0,88,0.00,,,0.00,225,Wunderground v.1.15,2013-12-25 18:29:00,
2013-12-25 12:30:00,20.7,17.7,30.22,SSW,192,4.0,4.0,88,0.00,,,0.00,220,Wunderground v.1.15,2013-12-25 18:30:00,
2013-12-25 12:31:00,20.7,17.7,30.22,SSW,196,4.0,5.0,88,0.00,,,0.00,214,Wunderground v.1.15,2013-12-25 18:31:00,
2013-12-25 12:34:00,20.7,17.7,30.22,SSW,196,4.0,7.0,88,0.00,,,0.00,204,Wunderground v.1.15,2013-12-25 18:34:00,
2013-12-25 12:35:00,20.7,17.7,30.22,SSW,199,4.0,7.0,88,0.00,,,0.00,204,Wunderground v.1.15,2013-12-25 18:35:00,
2013-12-25 12:37:00,20.7,17.7,30.22,South,186,4.0,7.0,88,0.00,,,0.00,200,Wunderground v.1.15,2013-12-25 18:37:00,
2013-12-25 12:38:00,20.7,17.7,30.22,South,187,4.0,7.0,88,0.00,,,0.00,197,Wunderground v.1.15,2013-12-25 18:38:00,
2013-12-25 12:39:00,20.7,17.7,30.22,South,188,4.0,7.0,88,0.00,,,0.00,197,Wunderground v.1.15,2013-12-25 18:39:00,
2013-12-25 12:41:00,20.8,17.8,30.22,South,187,4.0,4.0,88,0.00,,,0.00,193,Wunderground v.1.15,2013-12-25 18:41:00,
2013-12-25 12:43:00,20.8,17.8,30.22,SSW,196,4.0,6.0,88,0.00,,,0.00,190,Wunderground v.1.15,2013-12-25 18:43:00,
2013-12-25 12:44:00,20.9,17.9,30.22,SSW,197,4.0,6.0,88,0.00,,,0.00,186,Wunderground v.1.15,2013-12-25 18:44:00,
2013-12-25 12:47:00,20.9,17.9,30.21,SSW,198,4.0,6.0,88,0.00,,,0.00,181,Wunderground v.1.15,2013-12-25 18:47:00,
2013-12-25 12:48:00,20.9,17.9,30.22,SSW,198,4.0,6.0,88,0.00,,,0.00,181,Wunderground v.1.15,2013-12-25 18:48:00,
2013-12-25 12:49:00,20.9,17.9,30.22,SSW,198,4.0,6.0,88,0.00,,,0.00,181,Wunderground v.1.15,2013-12-25 18:49:00,
2013-12-25 12:50:00,20.9,17.9,30.22,SSW,198,4.0,4.0,88,0.00,,,0.00,183,Wunderground v.1.15,2013-12-25 18:50:00,
2013-12-25 12:52:00,20.9,17.9,30.21,SSW,198,3.0,4.0,88,0.00,,,0.00,186,Wunderground v.1.15,2013-12-25 18:52:00,
2013-12-25 12:56:00,21.1,18.1,30.21,SSW,194,3.0,4.0,88,0.00,,,0.00,185,Wunderground v.1.15,2013-12-25 18:56:00,
2013-12-25 12:57:00,21.1,18.1,30.22,SSW,199,3.0,4.0,88,0.00,,,0.00,183,Wunderground v.1.15,2013-12-25 18:57:00,
2013-12-25 12:58:00,21.1,18.1,30.22,SSW,195,3.0,4.0,88,0.00,,,0.00,178,Wunderground v.1.15,2013-12-25 18:58:00,
2013-12-25 13:02:00,21.2,18.2,30.22,South,173,4.0,5.0,88,0.00,,,0.00,148,Wunderground v.1.15,2013-12-25 19:02:00,
2013-12-25 13:03:00,21.1,18.1,30.22,South,191,4.0,5.0,88,0.00,,,0.00,139,Wunderground v.1.15,2013-12-25 19:03:00,
2013-12-25 13:04:00,21.1,18.1,30.21,South,190,4.0,5.0,88,0.00,,,0.00,134,Wunderground v.1.15,2013-12-25 19:04:00,
2013-12-25 13:05:00,21.1,18.1,30.21,South,191,4.0,5.0,88,0.00,,,0.00,128,Wunderground v.1.15,2013-12-25 19:05:00,
2013-12-25 13:08:00,21.1,18.1,30.21,South,190,4.0,5.0,88,0.00,,,0.00,141,Wunderground v.1.15,2013-12-25 19:08:00,
2013-12-25 13:09:00,21.1,18.1,30.21,South,190,4.0,5.0,88,0.00,,,0.00,148,Wunderground v.1.15,2013-12-25 19:09:00,
2013-12-25 13:11:00,21.1,18.1,30.21,South,190,3.0,3.0,88,0.00,,,0.00,158,Wunderground v.1.15,2013-12-25 19:11:00,
2013-12-25 13:12:00,21.1,18.1,30.21,South,190,3.0,3.0,88,0.00,,,0.00,153,Wunderground v.1.15,2013-12-25 19:12:00,
2013-12-25 13:13:00,21.1,18.1,30.21,South,190,2.0,3.0,88,0.00,,,0.00,127,Wunderground v.1.15,2013-12-25 19:13:00,
2013-12-25 13:16:00,21.2,18.2,30.21,South,190,2.0,3.0,88,0.00,,,0.00,100,Wunderground v.1.15,2013-12-25 19:16:00,
2013-12-25 13:18:00,21.2,18.5,30.21,South,190,1.0,3.0,89,0.00,,,0.00,90,Wunderground v.1.15,2013-12-25 19:18:00,
2013-12-25 13:19:00,21.2,18.5,30.21,South,190,1.0,3.0,89,0.00,,,0.00,86,Wunderground v.1.15,2013-12-25 19:19:00,
2013-12-25 13:20:00,21.2,18.5,30.21,South,190,1.0,1.0,89,0.00,,,0.00,86,Wunderground v.1.15,2013-12-25 19:20:00,
2013-12-25 13:21:00,21.2,18.5,30.21,South,190,1.0,1.0,89,0.00,,,0.00,86,Wunderground v.1.15,2013-12-25 19:21:00,
2013-12-25 13:24:00,21.2,18.5,30.21,South,190,1.0,4.0,89,0.00,,,0.00,88,Wunderground v.1.15,2013-12-25 19:24:00,
2013-12-25 13:25:00,21.2,18.5,30.20,South,190,2.0,4.0,89,0.00,,,0.00,86,Wunderground v.1.15,2013-12-25 19:25:00,
2013-12-25 13:26:00,21.2,18.5,30.20,South,190,2.0,4.0,89,0.00,,,0.00,84,Wunderground v.1.15,2013-12-25 19:26:00,
2013-12-25 13:27:00,21.1,18.4,30.20,South,190,2.0,4.0,89,0.00,,,0.00,84,Wunderground v.1.15,2013-12-25 19:27:00,
2013-12-25 13:28:00,21.1,18.4,30.20,South,190,2.0,4.0,89,0.00,,,0.00,86,Wunderground v.1.15,2013-12-25 19:28:00,
2013-12-25 13:33:00,20.9,18.2,30.20,South,190,2.0,3.0,89,0.00,,,0.00,113,Wunderground v.1.15,2013-12-25 19:33:00,
2013-12-25 13:35:00,20.9,18.2,30.20,South,190,2.0,3.0,89,0.00,,,0.00,128,Wunderground v.1.15,2013-12-25 19:35:00,
2013-12-25 13:36:00,21.0,18.3,30.20,South,190,2.0,3.0,89,0.00,,,0.00,134,Wunderground v.1.15,2013-12-25 19:36:00,
2013-12-25 13:38:00,21.0,18.3,30.20,South,190,2.0,3.0,89,0.00,,,0.00,139,Wunderground v.1.15,2013-12-25 19:38:00,
2013-12-25 13:41:00,21.1,18.4,30.20,South,189,2.0,3.0,89,0.00,,,0.00,134,Wunderground v.1.15,2013-12-25 19:41:00,
2013-12-25 13:42:00,21.1,18.4,30.20,South,187,2.0,4.0,89,0.00,,,0.00,125,Wunderground v.1.15,2013-12-25 19:42:00,
2013-12-25 13:43:00,21.1,18.4,30.20,South,186,2.0,5.0,89,0.00,,,0.00,121,Wunderground v.1.15,2013-12-25 19:43:00,
2013-12-25 13:48:00,21.1,18.4,30.20,South,181,3.0,6.0,89,0.00,,,0.00,120,Wunderground v.1.15,2013-12-25 19:48:00,
2013-12-25 13:49:00,21.1,18.4,30.20,South,181,3.0,6.0,89,0.00,,,0.00,120,Wunderground v.1.15,2013-12-25 19:49:00,
2013-12-25 13:52:00,21.1,18.4,30.20,South,181,3.0,5.0,89,0.00,,,0.00,128,Wunderground v.1.15,2013-12-25 19:52:00,
2013-12-25 13:53:00,21.1,18.4,30.20,South,181,3.0,5.0,89,0.00,,,0.00,123,Wunderground v.1.15,2013-12-25 19:53:00,
2013-12-25 13:55:00,21.1,18.4,30.20,South,181,3.0,5.0,89,0.00,,,0.00,98,Wunderground v.1.15,2013-12-25 19:55:00,
2013-12-25 13:59:00,21.1,18.4,30.20,South,181,3.0,5.0,89,0.00,,,0.00,72,Wunderground v.1.15,2013-12-25 19:59:00,
2013-12-25 14:00:00,21.1,18.4,30.20,South,181,3.0,3.0,89,0.00,,,0.00,67,Wunderground v.1.15,2013-12-25 20:00:00,
2013-12-25 14:01:00,21.1,18.4,30.19,South,181,3.0,3.0,89,0.00,,,0.00,67,Wunderground v.1.15,2013-12-25 20:01:00,
2013-12-25 14:03:00,21.1,18.4,30.19,South,180,3.0,4.0,89,0.00,,,0.00,69,Wunderground v.1.15,2013-12-25 20:03:00,
2013-12-25 14:06:00,21.1,18.4,30.19,South,180,2.0,4.0,89,0.00,,,0.00,62,Wunderground v.1.15,2013-12-25 20:06:00,
2013-12-25 14:07:00,21.1,18.4,30.19,South,179,2.0,6.0,89,0.00,,,0.00,56,Wunderground v.1.15,2013-12-25 20:07:00,
2013-12-25 14:08:00,21.1,18.4,30.19,South,179,2.0,6.0,89,0.00,,,0.00,54,Wunderground v.1.15,2013-12-25 20:08:00,
2013-12-25 14:09:00,21.1,18.4,30.19,South,179,3.0,6.0,89,0.00,,,0.00,54,Wunderground v.1.15,2013-12-25 20:09:00,
2013-12-25 14:10:00,21.1,18.4,30.19,South,179,3.0,3.0,89,0.00,,,0.00,54,Wunderground v.1.15,2013-12-25 20:10:00,
2013-12-25 14:14:00,21.1,18.4,30.20,South,179,3.0,4.0,89,0.00,,,0.00,49,Wunderground v.1.15,2013-12-25 20:14:00,
2013-12-25 14:16:00,21.1,18.4,30.20,South,177,3.0,7.0,89,0.00,,,0.00,42,Wunderground v.1.15,2013-12-25 20:16:00,
2013-12-25 14:17:00,21.1,18.4,30.20,South,178,3.0,7.0,89,0.00,,,0.00,40,Wunderground v.1.15,2013-12-25 20:17:00,
2013-12-25 14:19:00,21.1,18.4,30.19,South,178,4.0,7.0,89,0.00,,,0.00,40,Wunderground v.1.15,2013-12-25 20:19:00,
2013-12-25 14:20:00,21.1,18.4,30.19,South,178,4.0,4.0,89,0.00,,,0.00,39,Wunderground v.1.15,2013-12-25 20:20:00,
2013-12-25 14:24:00,21.1,18.4,30.20,South,178,4.0,7.0,89,0.00,,,0.00,44,Wunderground v.1.15,2013-12-25 20:24:00,
2013-12-25 14:25:00,21.1,18.4,30.20,South,175,5.0,7.0,89,0.00,,,0.00,47,Wunderground v.1.15,2013-12-25 20:25:00,
2013-12-25 14:27:00,21.1,18.4,30.19,South,174,5.0,7.0,89,0.00,,,0.00,60,Wunderground v.1.15,2013-12-25 20:27:00,
2013-12-25 14:30:00,21.1,18.4,30.19,South,173,4.0,4.0,89,0.00,,,0.00,58,Wunderground v.1.15,2013-12-25 20:30:00,
2013-12-25 14:31:00,21.1,18.4,30.19,South,173,4.0,4.0,89,0.00,,,0.00,56,Wunderground v.1.15,2013-12-25 20:31:00,
2013-12-25 14:32:00,21.1,18.4,30.19,South,173,4.0,5.0,89,0.00,,,0.00,58,Wunderground v.1.15,2013-12-25 20:32:00,
2013-12-25 14:34:00,21.2,18.5,30.19,South,173,4.0,5.0,89,0.00,,,0.00,60,Wunderground v.1.15,2013-12-25 20:34:00,
2013-12-25 14:35:00,21.2,18.5,30.19,South,173,4.0,5.0,89,0.00,,,0.00,62,Wunderground v.1.15,2013-12-25 20:35:00,
2013-12-25 14:36:00,21.2,18.5,30.19,South,173,4.0,5.0,89,0.00,,,0.00,62,Wunderground v.1.15,2013-12-25 20:36:00,
2013-12-25 14:41:00,21.2,18.5,30.19,South,173,4.0,4.0,89,0.00,,,0.00,49,Wunderground v.1.15,2013-12-25 20:41:00,
2013-12-25 14:42:00,21.2,18.5,30.19,South,173,4.0,6.0,89,0.00,,,0.00,47,Wunderground v.1.15,2013-12-25 20:42:00,
2013-12-25 14:43:00,21.2,18.5,30.19,South,173,4.0,6.0,89,0.00,,,0.00,47,Wunderground v.1.15,2013-12-25 20:43:00,
2013-12-25 14:44:00,21.2,18.5,30.19,South,173,4.0,6.0,89,0.00,,,0.00,47,Wunderground v.1.15,2013-12-25 20:44:00,
2013-12-25 14:45:00,21.2,18.5,30.19,South,173,4.0,6.0,89,0.00,,,0.00,47,Wunderground v.1.15,2013-12-25 20:45:00,
2013-12-25 14:47:00,21.3,18.6,30.19,South,173,3.0,6.0,89,0.00,,,0.00,46,Wunderground v.1.15,2013-12-25 20:47:00,
2013-12-25 14:48:00,21.3,18.6,30.20,South,173,3.0,6.0,89,0.00,,,0.00,46,Wunderground v.1.15,2013-12-25 20:48:00,
2013-12-25 14:51:00,21.3,18.6,30.19,South,173,3.0,4.0,89,0.00,,,0.00,42,Wunderground v.1.15,2013-12-25 20:51:00,
2013-12-25 14:52:00,21.3,18.6,30.19,South,173,2.0,4.0,89,0.00,,,0.00,40,Wunderground v.1.15,2013-12-25 20:52:00,
2013-12-25 14:53:00,21.3,18.6,30.19,South,173,2.0,4.0,89,0.00,,,0.00,40,Wunderground v.1.15,2013-12-25 20:53:00,
2013-12-25 14:56:00,21.3,18.6,30.19,South,173,2.0,4.0,89,0.00,,,0.00,37,Wunderground v.1.15,2013-12-25 20:56:00,
2013-12-25 14:57:00,21.3,18.6,30.19,South,173,2.0,4.0,89,0.00,,,0.00,37,Wunderground v.1.15,2013-12-25 20:57:00,
2013-12-25 14:59:00,21.3,18.6,30.19,South,173,2.0,4.0,89,0.00,,,0.00,33,Wunderground v.1.15,2013-12-25 20:59:00,
2013-12-25 15:00:00,21.3,18.6,30.19,South,173,2.0,4.0,89,0.00,,,0.00,35,Wunderground v.1.15,2013-12-25 21:00:00,
2013-12-25 15:01:00,21.4,18.7,30.19,South,173,2.0,4.0,89,0.00,,,0.00,33,Wunderground v.1.15,2013-12-25 21:01:00,
2013-12-25 15:02:00,21.3,18.6,30.20,South,173,3.0,4.0,89,0.00,,,0.00,32,Wunderground v.1.15,2013-12-25 21:02:00,
2013-12-25 15:06:00,21.3,18.6,30.20,South,173,3.0,7.0,89,0.00,,,0.00,28,Wunderground v.1.15,2013-12-25 21:06:00,
2013-12-25 15:07:00,21.3,18.6,30.20,South,173,3.0,7.0,89,0.00,,,0.00,28,Wunderground v.1.15,2013-12-25 21:07:00,
2013-12-25 15:08:00,21.3,18.6,30.20,South,173,3.0,7.0,89,0.00,,,0.00,28,Wunderground v.1.15,2013-12-25 21:08:00,
2013-12-25 15:10:00,21.3,18.6,30.20,South,172,4.0,4.0,89,0.00,,,0.00,28,Wunderground v.1.15,2013-12-25 21:10:00,
2013-12-25 15:13:00,21.4,18.7,30.19,South,173,3.0,5.0,89,0.00,,,0.00,26,Wunderground v.1.15,2013-12-25 21:13:00,
2013-12-25 15:16:00,21.4,18.7,30.19,South,173,3.0,5.0,89,0.00,,,0.00,28,Wunderground v.1.15,2013-12-25 21:16:00,
2013-12-25 15:17:00,21.4,18.7,30.20,South,173,3.0,5.0,89,0.00,,,0.00,28,Wunderground v.1.15,2013-12-25 21:17:00,
2013-12-25 15:18:00,21.4,18.7,30.19,South,174,3.0,5.0,89,0.00,,,0.00,28,Wunderground v.1.15,2013-12-25 21:18:00,
2013-12-25 15:20:00,21.4,18.7,30.20,South,174,3.0,4.0,89,0.00,,,0.00,32,Wunderground v.1.15,2013-12-25 21:20:00,
2013-12-25 15:22:00,21.4,18.7,30.20,South,174,3.0,4.0,89,0.00,,,0.00,32,Wunderground v.1.15,2013-12-25 21:22:00,
2013-12-25 15:23:00,21.4,18.7,30.19,South,176,3.0,4.0,89,0.00,,,0.00,30,Wunderground v.1.15,2013-12-25 21:23:00,
2013-12-25 15:24:00,21.4,18.7,30.20,South,176,3.0,4.0,89,0.00,,,0.00,30,Wunderground v.1.15,2013-12-25 21:24:00,
2013-12-25 15:25:00,21.4,18.7,30.19,South,176,3.0,4.0,89,0.00,,,0.00,30,Wunderground v.1.15,2013-12-25 21:25:00,
2013-12-25 15:27:00,21.5,18.8,30.20,South,176,3.0,4.0,89,0.00,,,0.00,30,Wunderground v.1.15,2013-12-25 21:27:00,
2013-12-25 15:30:00,21.5,18.8,30.19,South,169,4.0,4.0,89,0.00,,,0.00,30,Wunderground v.1.15,2013-12-25 21:30:00,
2013-12-25 15:31:00,21.5,18.8,30.19,South,169,4.0,4.0,89,0.00,,,0.00,30,Wunderground v.1.15,2013-12-25 21:31:00,
2013-12-25 15:35:00,21.6,18.9,30.19,South,169,3.0,5.0,89,0.00,,,0.00,25,Wunderground v.1.15,2013-12-25 21:35:00,
2013-12-25 15:36:00,21.6,18.9,30.19,South,169,4.0,5.0,89,0.00,,,0.00,23,Wunderground v.1.15,2013-12-25 21:36:00,
2013-12-25 15:37:00,21.6,18.9,30.19,South,169,3.0,5.0,89,0.00,,,0.00,23,Wunderground v.1.15,2013-12-25 21:37:00,
2013-12-25 15:39:00,21.6,18.9,30.19,South,169,3.0,5.0,89,0.00,,,0.00,23,Wunderground v.1.15,2013-12-25 21:39:00,
2013-12-25 15:40:00,21.6,18.9,30.19,South,169,3.0,6.0,89,0.00,,,0.00,21,Wunderground v.1.15,2013-12-25 21:40:00,
2013-12-25 15:43:00,21.6,18.9,30.19,South,171,3.0,6.0,89,0.00,,,0.00,21,Wunderground v.1.15,2013-12-25 21:43:00,
2013-12-25 15:45:00,21.6,18.9,30.19,South,171,4.0,6.0,89,0.00,,,0.00,19,Wunderground v.1.15,2013-12-25 21:45:00,
2013-12-25 15:48:00,21.7,19.0,30.19,South,171,4.0,6.0,89,0.00,,,0.00,18,Wunderground v.1.15,2013-12-25 21:48:00,
2013-12-25 15:50:00,21.7,19.0,30.19,South,171,4.0,4.0,89,0.00,,,0.00,18,Wunderground v.1.15,2013-12-25 21:50:00,
2013-12-25 15:51:00,21.7,19.0,30.19,South,171,4.0,4.0,89,0.00,,,0.00,16,Wunderground v.1.15,2013-12-25 21:51:00,
2013-12-25 15:52:00,21.7,19.0,30.19,South,171,4.0,4.0,89,0.00,,,0.00,16,Wunderground v.1.15,2013-12-25 21:52:00,
2013-12-25 15:54:00,21.7,19.0,30.19,South,171,3.0,4.0,89,0.00,,,0.00,14,Wunderground v.1.15,2013-12-25 21:54:00,
2013-12-25 15:56:00,21.7,19.0,30.19,South,173,4.0,5.0,89,0.00,,,0.00,12,Wunderground v.1.15,2013-12-25 21:56:00,
2013-12-25 15:57:00,21.7,19.0,30.19,South,173,4.0,5.0,89,0.00,,,0.00,12,Wunderground v.1.15,2013-12-25 21:57:00,
2013-12-25 15:58:00,21.8,19.1,30.19,South,169,4.0,8.0,89,0.00,,,0.00,12,Wunderground v.1.15,2013-12-25 21:58:00,
2013-12-25 15:59:00,21.8,19.1,30.19,SSE,167,4.0,8.0,89,0.00,,,0.00,11,Wunderground v.1.15,2013-12-25 21:59:00,
2013-12-25 16:01:00,21.8,19.1,30.19,SSE,167,4.0,4.0,89,0.00,,,0.00,11,Wunderground v.1.15,2013-12-25 22:01:00,
2013-12-25 16:04:00,21.8,19.1,30.19,South,169,5.0,7.0,89,0.00,,,0.00,9,Wunderground v.1.15,2013-12-25 22:04:00,
2013-12-25 16:05:00,21.9,19.2,30.19,South,169,5.0,7.0,89,0.00,,,0.00,9,Wunderground v.1.15,2013-12-25 22:05:00,
2013-12-25 16:07:00,21.9,19.2,30.19,South,169,5.0,7.0,89,0.00,,,0.00,7,Wunderground v.1.15,2013-12-25 22:07:00,
2013-12-25 16:09:00,21.9,18.9,30.19,SSE,167,4.0,7.0,88,0.00,,,0.00,7,Wunderground v.1.15,2013-12-25 22:09:00,
2013-12-25 16:12:00,21.9,18.9,30.19,SSE,167,4.0,4.0,88,0.00,,,0.00,5,Wunderground v.1.15,2013-12-25 22:12:00,
2013-12-25 16:13:00,21.9,18.9,30.19,SSE,167,4.0,4.0,88,0.00,,,0.00,5,Wunderground v.1.15,2013-12-25 22:13:00,
2013-12-25 16:14:00,21.9,18.9,30.19,SSE,167,3.0,5.0,88,0.00,,,0.00,5,Wunderground v.1.15,2013-12-25 22:14:00,
2013-12-25 16:15:00,21.9,18.9,30.19,SSE,167,3.0,5.0,88,0.00,,,0.00,5,Wunderground v.1.15,2013-12-25 22:15:00,
2013-12-25 16:16:00,21.9,18.9,30.19,SSE,167,3.0,5.0,88,0.00,,,0.00,0,Wunderground v.1.15,2013-12-25 22:16:00,
2013-12-25 16:18:00,21.9,18.9,30.19,SSE,167,3.0,5.0,88,0.00,,,0.00,0,Wunderground v.1.15,2013-12-25 22:18:00,
2013-12-25 16:19:00,21.9,18.9,30.19,SSE,167,3.0,5.0,88,0.00,,,0.00,0,Wunderground v.1.15,2013-12-25 22:19:00,
2013-12-25 16:20:00,21.9,18.9,30.19,SSE,167,3.0,3.0,88,0.00,,,0.00,0,Wunderground v.1.15,2013-12-25 22:20:00,
2013-12-25 16:21:00,21.9,18.9,30.19,SSE,167,3.0,4.0,88,0.00,,,0.00,0,Wunderground v.1.15,2013-12-25 22:21:00,
2013-12-25 16:26:00,21.9,18.9,30.19,South,170,3.0,6.0,88,0.00,,,0.00,0,Wunderground v.1.15,2013-12-25 22:26:00,
2013-12-25 16:28:00,22.0,19.0,30.19,South,170,3.0,6.0,88,0.00,,,0.00,0,Wunderground v.1.15,2013-12-25 22:28:00,
2013-12-25 16:29:00,22.0,19.0,30.19,South,171,3.0,6.0,88,0.00,,,0.00,0,Wunderground v.1.15,2013-12-25 22:29:00,
2013-12-25 16:31:00,22.0,19.3,30.19,South,182,4.0,6.0,89,0.00,,,0.00,0,Wunderground v.1.15,2013-12-25 22:31:00,
2013-12-25 16:33:00,22.0,19.3,30.19,South,182,4.0,6.0,89,0.00,,,0.00,0,Wunderground v.1.15,2013-12-25 22:33:00,
2013-12-25 16:34:00,22.0,19.3,30.19,South,182,4.0,6.0,89,0.00,,,0.00,0,Wunderground v.1.15,2013-12-25 22:34:00,
2013-12-25 16:35:00,22.0,19.3,30.19,South,182,3.0,6.0,89,0.00,,,0.00,0,Wunderground v.1.15,2013-12-25 22:35:00,
2013-12-25 16:36:00,22.0,19.3,30.19,South,182,3.0,6.0,89,0.00,,,0.00,0,Wunderground v.1.15,2013-12-25 22:36:00,
2013-12-25 16:37:00,22.0,19.3,30.19,South,182,3.0,6.0,89,0.00,,,0.00,0,Wunderground v.1.15,2013-12-25 22:37:00,
2013-12-25 16:38:00,22.0,19.3,30.19,South,182,3.0,6.0,89,0.00,,,0.00,0,Wunderground v.1.15,2013-12-25 22:38:00,
2013-12-25 16:41:00,22.1,19.4,30.19,South,182,2.0,3.0,89,0.00,,,0.00,0,Wunderground v.1.15,2013-12-25 22:41:00,
2013-12-25 16:43:00,22.1,19.4,30.19,South,182,2.0,3.0,89,0.00,,,0.00,0,Wunderground v.1.15,2013-12-25 22:43:00,
2013-12-25 16:44:00,22.1,19.4,30.19,South,182,2.0,4.0,89,0.00,,,0.00,0,Wunderground v.1.15,2013-12-25 22:44:00,
2013-12-25 16:46:00,22.1,19.4,30.19,South,182,3.0,5.0,89,0.00,,,0.00,0,Wunderground v.1.15,2013-12-25 22:46:00,
2013-12-25 16:48:00,22.1,19.4,30.19,South,182,3.0,5.0,89,0.00,,,0.00,0,Wunderground v.1.15,2013-12-25 22:48:00,
2013-12-25 16:49:00,22.1,19.4,30.19,South,182,2.0,5.0,89,0.00,,,0.00,0,Wunderground v.1.15,2013-12-25 22:49:00,
2013-12-25 16:50:00,22.2,19.5,30.19,South,182,2.0,2.0,89,0.00,,,0.00,0,Wunderground v.1.15,2013-12-25 22:50:00,
2013-12-25 16:51:00,22.2,19.5,30.19,South,182,2.0,3.0,89,0.00,,,0.00,0,Wunderground v.1.15,2013-12-25 22:51:00,
2013-12-25 16:55:00,22.2,19.5,30.19,South,182,2.0,3.0,89,0.00,,,0.00,0,Wunderground v.1.15,2013-12-25 22:55:00,
2013-12-25 16:56:00,22.2,19.5,30.19,South,182,2.0,3.0,89,0.00,,,0.00,0,Wunderground v.1.15,2013-12-25 22:56:00,
2013-12-25 17:00:00,22.2,19.5,30.19,South,182,2.0,2.0,89,0.00,,,0.00,0,Wunderground v.1.15,2013-12-25 23:00:00,
2013-12-25 17:03:00,22.2,19.5,30.19,South,182,1.0,2.0,89,0.00,,,0.00,0,Wunderground v.1.15,2013-12-25 23:03:00,
2013-12-25 17:04:00,22.2,19.5,30.19,South,182,1.0,2.0,89,0.00,,,0.00,0,Wunderground v.1.15,2013-12-25 23:04:00,
2013-12-25 17:06:00,22.3,19.6,30.19,South,182,1.0,2.0,89,0.00,,,0.00,0,Wunderground v.1.15,2013-12-25 23:06:00,
2013-12-25 17:07:00,22.2,19.5,30.19,South,182,1.0,2.0,89,0.00,,,0.00,0,Wunderground v.1.15,2013-12-25 23:07:00,
2013-12-25 17:08:00,22.3,19.6,30.19,South,182,1.0,2.0,89,0.00,,,0.00,0,Wunderground v.1.15,2013-12-25 23:08:00,
2013-12-25 17:09:00,22.3,19.6,30.19,South,182,1.0,2.0,89,0.00,,,0.00,0,Wunderground v.1.15,2013-12-25 23:09:00,
2013-12-25 17:11:00,22.3,19.6,30.19,South,182,1.0,2.0,89,0.00,,,0.00,0,Wunderground v.1.15,2013-12-25 23:11:00,
2013-12-25 17:13:00,22.4,19.6,30.19,South,182,1.0,2.0,89,0.00,,,0.00,0,Wunderground v.1.15,2013-12-25 23:13:00,
2013-12-25 17:15:00,22.4,19.6,30.19,South,182,1.0,2.0,89,0.00,,,0.00,0,Wunderground v.1.15,2013-12-25 23:15:00,
2013-12-25 17:17:00,22.4,19.6,30.19,South,182,1.0,4.0,89,0.00,,,0.00,0,Wunderground v.1.15,2013-12-25 23:17:00,
2013-12-25 17:20:00,22.4,19.6,30.18,South,182,2.0,3.0,89,0.00,,,0.00,0,Wunderground v.1.15,2013-12-25 23:20:00,
2013-12-25 17:21:00,22.4,19.6,30.18,South,182,2.0,3.0,89,0.00,,,0.00,0,Wunderground v.1.15,2013-12-25 23:21:00,
2013-12-25 17:23:00,22.5,19.7,30.18,South,178,2.0,3.0,89,0.00,,,0.00,0,Wunderground v.1.15,2013-12-25 23:23:00,
2013-12-25 17:24:00,22.5,19.7,30.18,South,178,2.0,3.0,89,0.00,,,0.00,0,Wunderground v.1.15,2013-12-25 23:24:00,
2013-12-25 17:27:00,22.5,19.7,30.18,South,178,2.0,3.0,89,0.00,,,0.00,0,Wunderground v.1.15,2013-12-25 23:27:00,
2013-12-25 17:28:00,22.5,19.7,30.18,South,178,2.0,3.0,89,0.00,,,0.00,0,Wunderground v.1.15,2013-12-25 23:28:00,
2013-12-25 17:29:00,22.5,19.7,30.18,South,178,2.0,3.0,89,0.00,,,0.00,0,Wunderground v.1.15,2013-12-25 23:29:00,
2013-12-25 17:30:00,22.5,19.7,30.18,South,178,2.0,2.0,89,0.00,,,0.00,0,Wunderground v.1.15,2013-12-25 23:30:00,
2013-12-25 17:33:00,22.5,19.7,30.18,South,177,2.0,5.0,89,0.00,,,0.00,0,Wunderground v.1.15,2013-12-25 23:33:00,
2013-12-25 17:35:00,22.5,19.7,30.18,South,170,3.0,5.0,89,0.00,,,0.00,0,Wunderground v.1.15,2013-12-25 23:35:00,
2013-12-25 17:36:00,22.6,19.8,30.18,South,170,3.0,5.0,89,0.00,,,0.00,0,Wunderground v.1.15,2013-12-25 23:36:00,
2013-12-25 17:39:00,22.6,19.8,30.18,South,170,3.0,5.0,89,0.00,,,0.00,0,Wunderground v.1.15,2013-12-25 23:39:00,
2013-12-25 17:41:00,22.6,19.8,30.18,South,170,3.0,3.0,89,0.00,,,0.00,0,Wunderground v.1.15,2013-12-25 23:41:00,
2013-12-25 17:42:00,22.6,19.8,30.18,South,170,3.0,3.0,89,0.00,,,0.00,0,Wunderground v.1.15,2013-12-25 23:42:00,
2013-12-25 17:43:00,22.6,19.8,30.18,South,170,2.0,4.0,89,0.00,,,0.00,0,Wunderground v.1.15,2013-12-25 23:43:00,
2013-12-25 17:46:00,22.6,20.1,30.18,South,170,2.0,4.0,90,0.00,,,0.00,0,Wunderground v.1.15,2013-12-25 23:46:00,
2013-12-25 17:47:00,22.6,20.1,30.18,South,170,2.0,4.0,90,0.00,,,0.00,0,Wunderground v.1.15,2013-12-25 23:47:00,
2013-12-25 17:49:00,22.5,19.7,30.18,South,170,2.0,4.0,89,0.00,,,0.00,0,Wunderground v.1.15,2013-12-25 23:49:00,
2013-12-25 17:51:00,22.6,19.8,30.18,South,170,1.0,2.0,89,0.00,,,0.00,0,Wunderground v.1.15,2013-12-25 23:51:00,
2013-12-25 17:53:00,22.6,19.8,30.18,South,170,2.0,4.0,89,0.00,,,0.00,0,Wunderground v.1.15,2013-12-25 23:53:00,
2013-12-25 17:54:00,22.6,19.8,30.17,South,170,2.0,4.0,89,0.00,,,0.00,0,Wunderground v.1.15,2013-12-25 23:54:00,
2013-12-25 17:55:00,22.5,19.7,30.17,South,170,2.0,4.0,89,0.00,,,0.00,0,Wunderground v.1.15,2013-12-25 23:55:00,
2013-12-25 17:56:00,22.5,19.7,30.18,South,170,2.0,4.0,89,0.00,,,0.00,0,Wunderground v.1.15,2013-12-25 23:56:00,
2013-12-25 17:57:00,22.5,19.7,30.17,South,170,2.0,4.0,89,0.00,,,0.00,0,Wunderground v.1.15,2013-12-25 23:57:00,
2013-12-25 18:01:00,22.6,19.8,30.17,South,170,2.0,2.0,89,0.00,,,0.00,0,Wunderground v.1.15,2013-12-26 00:01:00,
2013-12-25 18:03:00,22.5,19.7,30.17,South,170,2.0,2.0,89,0.00,,,0.00,0,Wunderground v.1.15,2013-12-26 00:03:00,
2013-12-25 18:05:00,22.5,20.0,30.17,South,170,2.0,2.0,90,0.00,,,0.00,0,Wunderground v.1.15,2013-12-26 00:05:00,
2013-12-25 18:08:00,22.5,20.0,30.17,South,170,1.0,2.0,90,0.00,,,0.00,0,Wunderground v.1.15,2013-12-26 00:08:00,
2013-12-25 18:09:00,22.5,20.0,30.17,South,170,1.0,2.0,90,0.00,,,0.00,0,Wunderground v.1.15,2013-12-26 00:09:00,
2013-12-25 18:12:00,22.5,20.0,30.17,South,170,0.0,1.0,90,0.00,,,0.00,0,Wunderground v.1.15,2013-12-26 00:12:00,
2013-12-25 18:13:00,22.5,20.0,30.17,South,170,0.0,1.0,90,0.00,,,0.00,0,Wunderground v.1.15,2013-12-26 00:13:00,
2013-12-25 18:16:00,22.5,20.0,30.18,South,170,0.0,1.0,90,0.00,,,0.00,0,Wunderground v.1.15,2013-12-26 00:16:00,
2013-12-25 18:21:00,22.5,20.0,30.18,South,170,0.0,0.0,90,0.00,,,0.00,0,Wunderground v.1.15,2013-12-26 00:21:00,
2013-12-25 18:22:00,22.5,20.0,30.18,South,170,0.0,0.0,90,0.00,,,0.00,0,Wunderground v.1.15,2013-12-26 00:22:00,
2013-12-25 18:24:00,22.5,20.0,30.18,South,170,0.0,0.0,90,0.00,,,0.00,0,Wunderground v.1.15,2013-12-26 00:24:00,
2013-12-25 18:28:00,22.5,20.0,30.18,South,170,0.0,0.0,90,0.00,,,0.00,0,Wunderground v.1.15,2013-12-26 00:28:00,
2013-12-25 18:29:00,22.5,20.0,30.18,South,170,0.0,0.0,90,0.00,,,0.00,0,Wunderground v.1.15,2013-12-26 00:29:00,
2013-12-25 18:30:00,22.5,20.0,30.18,South,170,0.0,0.0,90,0.00,,,0.00,0,Wunderground v.1.15,2013-12-26 00:30:00,
2013-12-25 18:31:00,22.5,20.0,30.18,South,170,0.0,0.0,90,0.00,,,0.00,0,Wunderground v.1.15,2013-12-26 00:31:00,
2013-12-25 18:33:00,22.5,20.0,30.18,South,170,0.0,0.0,90,0.00,,,0.00,0,Wunderground v.1.15,2013-12-26 00:33:00,
2013-12-25 18:35:00,22.5,20.0,30.18,South,170,0.0,0.0,90,0.00,,,0.00,0,Wunderground v.1.15,2013-12-26 00:35:00,
2013-12-25 18:36:00,22.4,19.9,30.18,South,170,0.0,0.0,90,0.00,,,0.00,0,Wunderground v.1.15,2013-12-26 00:36:00,
2013-12-25 18:37:00,22.5,20.0,30.18,South,170,0.0,1.0,90,0.00,,,0.00,0,Wunderground v.1.15,2013-12-26 00:37:00,
2013-12-25 18:38:00,22.5,20.0,30.18,South,170,0.0,1.0,90,0.00,,,0.00,0,Wunderground v.1.15,2013-12-26 00:38:00,
2013-12-25 18:42:00,22.5,20.0,30.18,South,170,0.0,0.0,90,0.00,,,0.00,0,Wunderground v.1.15,2013-12-26 00:42:00,
2013-12-25 18:43:00,22.5,20.0,30.18,South,170,0.0,0.0,90,0.00,,,0.00,0,Wunderground v.1.15,2013-12-26 00:43:00,
2013-12-25 18:45:00,22.5,20.0,30.18,South,170,0.0,0.0,90,0.00,,,0.00,0,Wunderground v.1.15,2013-12-26 00:45:00,
2013-12-25 18:47:00,22.5,20.0,30.18,South,170,0.0,1.0,90,0.00,,,0.00,0,Wunderground v.1.15,2013-12-26 00:47:00,
2013-12-25 18:48:00,22.5,20.0,30.18,South,170,0.0,1.0,90,0.00,,,0.00,0,Wunderground v.1.15,2013-12-26 00:48:00,
2013-12-25 18:51:00,22.5,20.0,30.18,South,170,0.0,2.0,90,0.00,,,0.00,0,Wunderground v.1.15,2013-12-26 00:51:00,
2013-12-25 18:52:00,22.5,20.0,30.17,South,170,1.0,4.0,90,0.00,,,0.00,0,Wunderground v.1.15,2013-12-26 00:52:00,
2013-12-25 18:53:00,22.5,20.0,30.18,South,170,1.0,4.0,90,0.00,,,0.00,0,Wunderground v.1.15,2013-12-26 00:53:00,
2013-12-25 18:56:00,22.6,20.1,30.17,South,170,2.0,5.0,90,0.00,,,0.00,0,Wunderground v.1.15,2013-12-26 00:56:00,
2013-12-25 18:57:00,22.6,20.1,30.17,South,170,2.0,5.0,90,0.00,,,0.00,0,Wunderground v.1.15,2013-12-26 00:57:00,
2013-12-25 18:58:00,22.6,20.1,30.18,South,170,2.0,5.0,90,0.00,,,0.00,0,Wunderground v.1.15,2013-12-26 00:58:00,
2013-12-25 19:02:00,22.6,20.1,30.18,South,170,3.0,3.0,90,0.00,,,0.00,0,Wunderground v.1.15,2013-12-26 01:02:00,
2013-12-25 19:03:00,22.6,20.1,30.18,South,170,3.0,3.0,90,0.00,,,0.00,0,Wunderground v.1.15,2013-12-26 01:03:00,
2013-12-25 19:07:00,22.7,20.2,30.18,South,170,2.0,3.0,90,0.00,,,0.00,0,Wunderground v.1.15,2013-12-26 01:07:00,
2013-12-25 19:08:00,22.7,20.2,30.18,South,170,2.0,3.0,90,0.00,,,0.00,0,Wunderground v.1.15,2013-12-26 01:08:00,
2013-12-25 19:09:00,22.7,20.2,30.18,South,170,1.0,3.0,90,0.00,,,0.00,0,Wunderground v.1.15,2013-12-26 01:09:00,
2013-12-25 19:11:00,22.7,20.2,30.18,South,170,1.0,4.0,90,0.00,,,0.00,0,Wunderground v.1.15,2013-12-26 01:11:00,
2013-12-25 19:13:00,22.7,20.2,30.17,South,170,1.0,4.0,90,0.00,,,0.00,0,Wunderground v.1.15,2013-12-26 01:13:00,
2013-12-25 19:17:00,22.7,20.2,30.17,South,170,1.0,4.0,90,0.00,,,0.00,0,Wunderground v.1.15,2013-12-26 01:17:00,
2013-12-25 19:19:00,22.8,20.6,30.18,South,170,1.0,4.0,91,0.00,,,0.00,0,Wunderground v.1.15,2013-12-26 01:19:00,
2013-12-25 19:20:00,22.8,20.6,30.18,South,170,2.0,2.0,91,0.00,,,0.00,0,Wunderground v.1.15,2013-12-26 01:20:00,
2013-12-25 19:21:00,22.8,20.6,30.18,South,170,2.0,2.0,91,0.00,,,0.00,0,Wunderground v.1.15,2013-12-26 01:21:00,
2013-12-25 19:22:00,22.8,20.3,30.18,South,170,1.0,2.0,90,0.00,,,0.00,0,Wunderground v.1.15,2013-12-26 01:22:00,
2013-12-25 19:25:00,22.9,20.7,30.18,South,170,1.0,2.0,91,0.00,,,0.00,0,Wunderground v.1.15,2013-12-26 01:25:00,
2013-12-25 19:26:00,22.9,20.7,30.18,South,170,1.0,2.0,91,0.00,,,0.00,0,Wunderground v.1.15,2013-12-26 01:26:00,
2013-12-25 19:27:00,22.9,20.7,30.18,South,170,1.0,2.0,91,0.00,,,0.00,0,Wunderground v.1.15,2013-12-26 01:27:00,
2013-12-25 19:31:00,22.9,20.7,30.18,South,170,0.0,0.0,91,0.00,,,0.00,0,Wunderground v.1.15,2013-12-26 01:31:00,
2013-12-25 19:32:00,22.9,20.7,30.18,South,170,0.0,0.0,91,0.00,,,0.00,0,Wunderground v.1.15,2013-12-26 01:32:00,
2013-12-25 19:33:00,22.9,20.7,30.18,South,170,0.0,0.0,91,0.00,,,0.00,0,Wunderground v.1.15,2013-12-26 01:33:00,
2013-12-25 19:35:00,23.0,20.8,30.18,South,170,0.0,0.0,91,0.00,,,0.00,0,Wunderground v.1.15,2013-12-26 01:35:00,
2013-12-25 19:37:00,23.0,20.8,30.18,South,170,0.0,0.0,91,0.00,,,0.00,0,Wunderground v.1.15,2013-12-26 01:37:00,
2013-12-25 19:38:00,23.0,20.8,30.18,South,170,0.0,0.0,91,0.00,,,0.00,0,Wunderground v.1.15,2013-12-26 01:38:00,
2013-12-25 19:40:00,23.0,20.8,30.18,South,170,0.0,4.0,91,0.00,,,0.00,0,Wunderground v.1.15,2013-12-26 01:40:00,
2013-12-25 19:42:00,23.1,20.9,30.17,South,170,0.0,4.0,91,0.00,,,0.00,0,Wunderground v.1.15,2013-12-26 01:42:00,
2013-12-25 19:43:00,23.1,20.9,30.18,South,170,0.0,4.0,91,0.00,,,0.00,0,Wunderground v.1.15,2013-12-26 01:43:00,
2013-12-25 19:45:00,23.1,20.9,30.18,South,170,1.0,4.0,91,0.00,,,0.00,0,Wunderground v.1.15,2013-12-26 01:45:00,
2013-12-25 19:46:00,23.1,20.9,30.18,South,170,1.0,4.0,91,0.00,,,0.00,0,Wunderground v.1.15,2013-12-26 01:46:00,
2013-12-25 19:47:00,23.1,20.9,30.18,South,170,1.0,4.0,91,0.00,,,0.00,0,Wunderground v.1.15,2013-12-26 01:47:00,
2013-12-25 19:48:00,23.1,20.9,30.18,South,170,1.0,4.0,91,0.00,,,0.00,0,Wunderground v.1.15,2013-12-26 01:48:00,
2013-12-25 19:49:00,23.2,21.0,30.18,NW,305,1.0,5.0,91,0.00,,,0.00,0,Wunderground v.1.15,2013-12-26 01:49:00,
2013-12-25 19:51:00,23.2,21.0,30.18,WNW,300,1.0,2.0,91,0.00,,,0.00,0,Wunderground v.1.15,2013-12-26 01:51:00,
2013-12-25 19:52:00,23.2,21.0,30.18,WNW,300,2.0,2.0,91,0.00,,,0.00,0,Wunderground v.1.15,2013-12-26 01:52:00,
2013-12-25 19:53:00,23.2,21.0,30.18,WNW,300,1.0,2.0,91,0.00,,,0.00,0,Wunderground v.1.15,2013-12-26 01:53:00,
2013-12-25 19:54:00,23.2,21.0,30.18,WNW,300,1.0,2.0,91,0.00,,,0.00,0,Wunderground v.1.15,2013-12-26 01:54:00,
2013-12-25 19:55:00,23.2,21.0,30.18,WNW,299,1.0,2.0,91,0.00,,,0.00,0,Wunderground v.1.15,2013-12-26 01:55:00,
2013-12-25 19:57:00,23.3,21.1,30.18,WNW,299,1.0,2.0,91,0.00,,,0.00,0,Wunderground v.1.15,2013-12-26 01:57:00,
2013-12-25 19:58:00,23.3,21.1,30.18,West,269,1.0,4.0,91,0.00,,,0.00,0,Wunderground v.1.15,2013-12-26 01:58:00,
2013-12-25 19:59:00,23.3,21.1,30.18,West,273,2.0,5.0,91,0.00,,,0.00,0,Wunderground v.1.15,2013-12-26 01:59:00,
2013-12-25 20:03:00,23.5,21.3,30.18,NW,309,3.0,4.0,91,0.00,,,0.00,0,Wunderground v.1.15,2013-12-26 02:03:00,
2013-12-25 20:04:00,23.5,21.3,30.18,NNW,333,3.0,4.0,91,0.00,,,0.00,0,Wunderground v.1.15,2013-12-26 02:04:00,
2013-12-25 20:05:00,23.5,21.3,30.18,NNW,344,3.0,4.0,91,0.00,,,0.00,0,Wunderground v.1.15,2013-12-26 02:05:00,
2013-12-25 20:06:00,23.5,21.3,30.18,NW,316,3.0,4.0,91,0.00,,,0.00,0,Wunderground v.1.15,2013-12-26 02:06:00,
2013-12-25 20:09:00,23.6,21.4,30.18,NW,319,3.0,5.0,91,0.00,,,0.00,0,Wunderground v.1.15,2013-12-26 02:09:00,
2013-12-25 20:10:00,23.6,21.1,30.18,NW,318,3.0,3.0,90,0.00,,,0.00,0,Wunderground v.1.15,2013-12-26 02:10:00,
2013-12-25 20:11:00,23.6,21.4,30.18,NW,321,3.0,3.0,91,0.00,,,0.00,0,Wunderground v.1.15,2013-12-26 02:11:00,
2013-12-25 20:15:00,23.6,21.1,30.18,NW,315,3.0,4.0,90,0.00,,,0.00,0,Wunderground v.1.15,2013-12-26 02:15:00,
2013-12-25 20:16:00,23.6,21.1,30.18,NW,314,3.0,4.0,90,0.00,,,0.00,0,Wunderground v.1.15,2013-12-26 02:16:00,
2013-12-25 20:18:00,23.6,21.1,30.18,NW,319,3.0,4.0,90,0.00,,,0.00,0,Wunderground v.1.15,2013-12-26 02:18:00,
2013-12-25 20:20:00,23.6,21.1,30.18,NW,319,2.0,2.0,90,0.00,,,0.00,0,Wunderground v.1.15,2013-12-26 02:20:00,
2013-12-25 20:21:00,23.6,21.1,30.18,NW,319,2.0,2.0,90,0.00,,,0.00,0,Wunderground v.1.15,2013-12-26 02:21:00,
2013-12-25 20:22:00,23.5,21.0,30.18,NW,319,2.0,2.0,90,0.00,,,0.00,0,Wunderground v.1.15,2013-12-26 02:22:00,
2013-12-25 20:25:00,23.5,21.0,30.18,NW,314,2.0,2.0,90,0.00,,,0.00,0,Wunderground v.1.15,2013-12-26 02:25:00,
2013-12-25 20:26:00,23.5,21.0,30.18,NW,314,1.0,2.0,90,0.00,,,0.00,0,Wunderground v.1.15,2013-12-26 02:26:00,
2013-12-25 20:27:00,23.5,21.0,30.18,NW,313,1.0,3.0,90,0.00,,,0.00,0,Wunderground v.1.15,2013-12-26 02:27:00,
2013-12-25 20:28:00,23.5,21.0,30.18,NW,304,1.0,3.0,90,0.00,,,0.00,0,Wunderground v.1.15,2013-12-26 02:28:00,
2013-12-25 20:30:00,23.4,20.9,30.18,WNW,300,2.0,2.0,90,0.00,,,0.00,0,Wunderground v.1.15,2013-12-26 02:30:00,
2013-12-25 20:32:00,23.4,20.9,30.19,West,273,2.0,3.0,90,0.00,,,0.00,0,Wunderground v.1.15,2013-12-26 02:32:00,
2013-12-25 20:34:00,23.4,20.9,30.19,NW,310,2.0,3.0,90,0.00,,,0.00,0,Wunderground v.1.15,2013-12-26 02:34:00,
2013-12-25 20:37:00,23.3,20.5,30.18,WNW,298,3.0,4.0,89,0.00,,,0.00,0,Wunderground v.1.15,2013-12-26 02:37:00,
2013-12-25 20:38:00,23.3,20.5,30.19,NW,319,3.0,4.0,89,0.00,,,0.00,0,Wunderground v.1.15,2013-12-26 02:38:00,
2013-12-25 20:39:00,23.3,20.5,30.19,NW,318,3.0,4.0,89,0.00,,,0.00,0,Wunderground v.1.15,2013-12-26 02:39:00,
2013-12-25 20:42:00,23.3,20.5,30.18,NW,317,2.0,2.0,89,0.00,,,0.00,0,Wunderground v.1.15,2013-12-26 02:42:00,
2013-12-25 20:45:00,23.2,20.4,30.19,WNW,288,2.0,3.0,89,0.00,,,0.00,0,Wunderground v.1.15,2013-12-26 02:45:00,
2013-12-25 20:46:00,23.2,20.4,30.19,WNW,287,2.0,3.0,89,0.00,,,0.00,0,Wunderground v.1.15,2013-12-26 02:46:00,
2013-12-25 20:47:00,23.2,20.4,30.19,WNW,294,2.0,3.0,89,0.00,,,0.00,0,Wunderground v.1.15,2013-12-26 02:47:00,
2013-12-25 20:50:00,23.2,20.4,30.19,WNW,295,2.0,2.0,89,0.00,,,0.00,0,Wunderground v.1.15,2013-12-26 02:50:00,
2013-12-25 20:53:00,23.1,20.3,30.19,SW,233,2.0,5.0,89,0.00,,,0.00,0,Wunderground v.1.15,2013-12-26 02:53:00,
2013-12-25 20:54:00,23.1,20.3,30.19,SW,227,2.0,5.0,89,0.00,,,0.00,0,Wunderground v.1.15,2013-12-26 02:54:00,
2013-12-25 20:56:00,23.1,20.3,30.19,SW,231,3.0,5.0,89,0.00,,,0.00,0,Wunderground v.1.15,2013-12-26 02:56:00,
2013-12-25 20:58:00,23.0,20.0,30.19,WSW,241,3.0,5.0,88,0.00,,,0.00,0,Wunderground v.1.15,2013-12-26 02:58:00,
2013-12-25 20:59:00,22.9,19.9,30.19,WSW,239,3.0,5.0,88,0.00,,,0.00,0,Wunderground v.1.15,2013-12-26 02:59:00,
2013-12-25 21:00:00,22.9,19.9,30.19,WSW,239,4.0,4.0,88,0.00,,,0.00,0,Wunderground v.1.15,2013-12-26 03:00:00,
2013-12-25 21:01:00,22.9,19.9,30.19,SW,232,4.0,5.0,88,0.00,,,0.00,0,Wunderground v.1.15,2013-12-26 03:01:00,
2013-12-25 21:05:00,22.6,19.6,30.19,SW,225,4.0,8.0,88,0.00,,,0.00,0,Wunderground v.1.15,2013-12-26 03:05:00,
2013-12-25 21:06:00,22.6,19.3,30.19,SW,236,4.0,8.0,87,0.00,,,0.00,0,Wunderground v.1.15,2013-12-26 03:06:00,
2013-12-25 21:09:00,22.4,19.1,30.19,SW,219,4.0,8.0,87,0.00,,,0.00,0,Wunderground v.1.15,2013-12-26 03:09:00,
2013-12-25 21:11:00,22.2,18.9,30.19,SW,219,5.0,7.0,87,0.00,,,0.00,0,Wunderground v.1.15,2013-12-26 03:11:00,
2013-12-25 21:12:00,22.1,18.6,30.19,SW,224,6.0,7.0,86,0.00,,,0.00,0,Wunderground v.1.15,2013-12-26 03:12:00,
2013-12-25 21:13:00,22.1,18.6,30.19,SW,227,6.0,7.0,86,0.00,,,0.00,0,Wunderground v.1.15,2013-12-26 03:13:00,
2013-12-25 21:14:00,22.0,18.5,30.19,West,259,6.0,9.0,86,0.00,,,0.00,0,Wunderground v.1.15,2013-12-26 03:14:00,
2013-12-25 21:17:00,21.8,18.3,30.20,SSW,212,6.0,9.0,86,0.00,,,0.00,0,Wunderground v.1.15,2013-12-26 03:17:00,
2013-12-25 21:19:00,21.7,17.9,30.20,WSW,237,7.0,9.0,85,0.00,,,0.00,0,Wunderground v.1.15,2013-12-26 03:19:00,
2013-12-25 21:22:00,21.6,17.8,30.20,SW,221,6.0,7.0,85,0.00,,,0.00,0,Wunderground v.1.15,2013-12-26 03:22:00,
2013-12-25 21:23:00,21.5,17.7,30.20,WSW,252,6.0,7.0,85,0.00,,,0.00,0,Wunderground v.1.15,2013-12-26 03:23:00,
2013-12-25 21:25:00,21.5,17.7,30.20,WSW,237,6.0,7.0,85,0.00,,,0.00,0,Wunderground v.1.15,2013-12-26 03:25:00,
2013-12-25 21:28:00,21.3,17.5,30.20,SSW,206,5.0,8.0,85,0.00,,,0.00,0,Wunderground v.1.15,2013-12-26 03:28:00,
2013-12-25 21:29:00,21.3,17.5,30.20,SW,219,5.0,8.0,85,0.00,,,0.00,0,Wunderground v.1.15,2013-12-26 03:29:00,
2013-12-25 21:30:00,21.2,17.4,30.20,West,269,5.0,7.0,85,0.00,,,0.00,0,Wunderground v.1.15,2013-12-26 03:30:00,
2013-12-25 21:31:00,21.2,17.4,30.20,WSW,243,5.0,7.0,85,0.00,,,0.00,0,Wunderground v.1.15,2013-12-26 03:31:00,
2013-12-25 21:32:00,21.1,17.3,30.20,WSW,238,5.0,7.0,85,0.00,,,0.00,0,Wunderground v.1.15,2013-12-26 03:32:00,
2013-12-25 21:35:00,21.1,17.3,30.20,West,264,4.0,7.0,85,0.00,,,0.00,0,Wunderground v.1.15,2013-12-26 03:35:00,
2013-12-25 21:36:00,21.1,17.3,30.20,WSW,252,4.0,7.0,85,0.00,,,0.00,0,Wunderground v.1.15,2013-12-26 03:36:00,
2013-12-25 21:37:00,21.0,17.2,30.20,WSW,240,4.0,7.0,85,0.00,,,0.00,0,Wunderground v.1.15,2013-12-26 03:37:00,
2013-12-25 21:38:00,21.0,17.2,30.20,WSW,242,3.0,7.0,85,0.00,,,0.00,0,Wunderground v.1.15,2013-12-26 03:38:00,
2013-12-25 21:39:00,21.0,17.2,30.20,WSW,240,3.0,7.0,85,0.00,,,0.00,0,Wunderground v.1.15,2013-12-26 03:39:00,
2013-12-25 21:42:00,20.9,16.8,30.20,WSW,258,2.0,7.0,84,0.00,,,0.00,0,Wunderground v.1.15,2013-12-26 03:42:00,
2013-12-25 21:44:00,20.8,18.8,30.20,SW,236,3.0,7.0,92,0.00,,,0.00,0,Wunderground v.1.15,2013-12-26 03:44:00,
2013-12-25 21:45:00,20.8,16.7,30.20,SW,235,3.0,7.0,84,0.00,,,0.00,0,Wunderground v.1.15,2013-12-26 03:45:00,
2013-12-25 21:47:00,20.7,16.6,30.20,SW,235,3.0,7.0,84,0.00,,,0.00,0,Wunderground v.1.15,2013-12-26 03:47:00,
2013-12-25 21:49:00,20.7,16.6,30.20,SW,229,3.0,7.0,84,0.00,,,0.00,0,Wunderground v.1.15,2013-12-26 03:49:00,
2013-12-25 21:50:00,20.7,16.6,30.21,SW,229,3.0,3.0,84,0.00,,,0.00,0,Wunderground v.1.15,2013-12-26 03:50:00,
2013-12-25 21:52:00,20.6,16.5,30.21,WNW,296,3.0,4.0,84,0.00,,,0.00,0,Wunderground v.1.15,2013-12-26 03:52:00,
2013-12-25 21:53:00,20.6,16.5,30.21,SW,232,3.0,4.0,84,0.00,,,0.00,0,Wunderground v.1.15,2013-12-26 03:53:00,
2013-12-25 21:55:00,20.6,16.5,30.21,WNW,283,3.0,4.0,84,0.00,,,0.00,0,Wunderground v.1.15,2013-12-26 03:55:00,
2013-12-25 21:58:00,20.4,16.3,30.21,SSW,209,3.0,6.0,84,0.00,,,0.00,0,Wunderground v.1.15,2013-12-26 03:58:00,
2013-12-25 21:59:00,20.4,16.3,30.20,SW,233,4.0,6.0,84,0.00,,,0.00,0,Wunderground v.1.15,2013-12-26 03:59:00,
2013-12-25 22:01:00,20.4,16.3,30.21,WSW,242,4.0,7.0,84,0.00,,,0.00,0,Wunderground v.1.15,2013-12-26 04:01:00,
2013-12-25 22:04:00,20.3,16.2,30.21,SW,228,4.0,7.0,84,0.00,,,0.00,0,Wunderground v.1.15,2013-12-26 04:04:00,
2013-12-25 22:05:00,20.2,16.1,30.20,SSW,211,4.0,7.0,84,0.00,,,0.00,0,Wunderground v.1.15,2013-12-26 04:05:00,
2013-12-25 22:10:00,20.1,16.0,30.21,SW,225,4.0,4.0,84,0.00,,,0.00,0,Wunderground v.1.15,2013-12-26 04:10:00,
2013-12-25 22:11:00,20.1,16.0,30.21,WNW,295,4.0,4.0,84,0.00,,,0.00,0,Wunderground v.1.15,2013-12-26 04:11:00,
2013-12-25 22:14:00,20.0,15.9,30.21,SW,236,4.0,4.0,84,0.00,,,0.00,0,Wunderground v.1.15,2013-12-26 04:14:00,
2013-12-25 22:15:00,20.0,15.9,30.21,SW,233,4.0,4.0,84,0.00,,,0.00,0,Wunderground v.1.15,2013-12-26 04:15:00,
2013-12-25 22:17:00,20.0,15.9,30.21,SW,234,4.0,5.0,84,0.00,,,0.00,0,Wunderground v.1.15,2013-12-26 04:17:00,
2013-12-25 22:20:00,19.9,15.8,30.21,SW,232,4.0,4.0,84,0.00,,,0.00,0,Wunderground v.1.15,2013-12-26 04:20:00,
2013-12-25 22:22:00,19.9,15.8,30.21,SW,232,4.0,4.0,84,0.00,,,0.00,0,Wunderground v.1.15,2013-12-26 04:22:00,
2013-12-25 22:23:00,19.9,15.8,30.21,SW,226,4.0,6.0,84,0.00,,,0.00,0,Wunderground v.1.15,2013-12-26 04:23:00,
2013-12-25 22:25:00,19.9,15.8,30.21,SW,230,4.0,6.0,84,0.00,,,0.00,0,Wunderground v.1.15,2013-12-26 04:25:00,
2013-12-25 22:26:00,19.8,15.7,30.21,SW,225,4.0,6.0,84,0.00,,,0.00,0,Wunderground v.1.15,2013-12-26 04:26:00,
2013-12-25 22:27:00,19.8,15.7,30.22,SW,235,4.0,6.0,84,0.00,,,0.00,0,Wunderground v.1.15,2013-12-26 04:27:00,
2013-12-25 22:28:00,19.8,15.7,30.22,SW,236,4.0,6.0,84,0.00,,,0.00,0,Wunderground v.1.15,2013-12-26 04:28:00,
2013-12-25 22:32:00,19.7,15.6,30.22,SW,227,5.0,6.0,84,0.00,,,0.00,0,Wunderground v.1.15,2013-12-26 04:32:00,
2013-12-25 22:33:00,19.7,15.6,30.22,WNW,285,4.0,6.0,84,0.00,,,0.00,0,Wunderground v.1.15,2013-12-26 04:33:00,
2013-12-25 22:36:00,19.7,15.6,30.22,WSW,249,5.0,6.0,84,0.00,,,0.00,0,Wunderground v.1.15,2013-12-26 04:36:00,
2013-12-25 22:38:00,19.6,15.6,30.22,SW,220,4.0,6.0,84,0.00,,,0.00,0,Wunderground v.1.15,2013-12-26 04:38:00,
2013-12-25 22:39:00,19.6,15.6,30.22,SW,221,4.0,6.0,84,0.00,,,0.00,0,Wunderground v.1.15,2013-12-26 04:39:00,
2013-12-25 22:42:00,19.6,15.6,30.22,West,271,4.0,4.0,84,0.00,,,0.00,0,Wunderground v.1.15,2013-12-26 04:42:00,
2013-12-25 22:44:00,19.5,15.5,30.22,WSW,257,4.0,5.0,84,0.00,,,0.00,0,Wunderground v.1.15,2013-12-26 04:44:00,
2013-12-25 22:46:00,19.5,15.5,30.22,WSW,255,3.0,5.0,84,0.00,,,0.00,0,Wunderground v.1.15,2013-12-26 04:46:00,
2013-12-25 22:48:00,19.5,15.5,30.22,West,273,3.0,5.0,84,0.00,,,0.00,0,Wunderground v.1.15,2013-12-26 04:48:00,
2013-12-25 22:49:00,19.4,15.4,30.22,West,271,3.0,5.0,84,0.00,,,0.00,0,Wunderground v.1.15,2013-12-26 04:49:00,
2013-12-25 22:53:00,19.4,15.4,30.22,SSW,194,4.0,8.0,84,0.00,,,0.00,0,Wunderground v.1.15,2013-12-26 04:53:00,
2013-12-25 22:56:00,19.3,15.3,30.22,SW,223,5.0,8.0,84,0.00,,,0.00,0,Wunderground v.1.15,2013-12-26 04:56:00,
2013-12-25 22:57:00,19.2,15.2,30.22,SW,230,5.0,8.0,84,0.00,,,0.00,0,Wunderground v.1.15,2013-12-26 04:57:00,
2013-12-25 22:58:00,19.2,15.2,30.22,SSW,211,5.0,8.0,84,0.00,,,0.00,0,Wunderground v.1.15,2013-12-26 04:58:00,
2013-12-25 23:00:00,19.1,15.1,30.22,SW,215,6.0,6.0,84,0.00,,,0.00,0,Wunderground v.1.15,2013-12-26 05:00:00,
2013-12-25 23:02:00,19.0,15.0,30.22,SW,224,6.0,7.0,84,0.00,,,0.00,0,Wunderground v.1.15,2013-12-26 05:02:00,
2013-12-25 23:03:00,19.0,14.7,30.23,SW,225,6.0,7.0,83,0.00,,,0.00,0,Wunderground v.1.15,2013-12-26 05:03:00,
2013-12-25 23:04:00,18.9,14.6,30.23,SSW,209,6.0,7.0,83,0.00,,,0.00,0,Wunderground v.1.15,2013-12-26 05:04:00,
2013-12-25 23:06:00,18.8,14.5,30.23,SW,225,6.0,7.0,83,0.00,,,0.00,0,Wunderground v.1.15,2013-12-26 05:06:00,
2013-12-25 23:07:00,18.8,14.5,30.23,SW,223,6.0,8.0,83,0.00,,,0.00,0,Wunderground v.1.15,2013-12-26 05:07:00,
2013-12-25 23:09:00,18.6,14.3,30.22,WSW,239,7.0,11.0,83,0.00,,,0.00,0,Wunderground v.1.15,2013-12-26 05:09:00,
2013-12-25 23:12:00,18.5,14.2,30.22,SW,236,6.0,6.0,83,0.00,,,0.00,0,Wunderground v.1.15,2013-12-26 05:12:00,
2013-12-25 23:14:00,18.4,14.1,30.22,SW,227,5.0,6.0,83,0.00,,,0.00,0,Wunderground v.1.15,2013-12-26 05:14:00,
2013-12-25 23:15:00,18.4,14.1,30.22,SW,229,5.0,6.0,83,0.00,,,0.00,0,Wunderground v.1.15,2013-12-26 05:15:00,
2013-12-25 23:16:00,18.3,14.0,30.23,SW,228,5.0,6.0,83,0.00,,,0.00,0,Wunderground v.1.15,2013-12-26 05:16:00,
2013-12-25 23:17:00,18.3,14.0,30.23,SW,226,5.0,6.0,83,0.00,,,0.00,0,Wunderground v.1.15,2013-12-26 05:17:00,
2013-12-25 23:20:00,18.1,13.8,30.23,SW,232,4.0,4.0,83,0.00,,,0.00,0,Wunderground v.1.15,2013-12-26 05:20:00,
2013-12-25 23:21:00,18.1,13.8,30.23,SW,230,4.0,4.0,83,0.00,,,0.00,0,Wunderground v.1.15,2013-12-26 05:21:00,
2013-12-25 23:23:00,18.0,13.7,30.23,WSW,238,4.0,6.0,83,0.00,,,0.00,0,Wunderground v.1.15,2013-12-26 05:23:00,
2013-12-25 23:25:00,17.9,13.6,30.23,SW,233,5.0,6.0,83,0.00,,,0.00,0,Wunderground v.1.15,2013-12-26 05:25:00,
2013-12-25 23:26:00,17.8,13.5,30.23,SW,221,5.0,6.0,83,0.00,,,0.00,0,Wunderground v.1.15,2013-12-26 05:26:00,
2013-12-25 23:28:00,17.7,13.4,30.23,SW,232,5.0,6.0,83,0.00,,,0.00,0,Wunderground v.1.15,2013-12-26 05:28:00,
2013-12-25 23:30:00,17.6,13.3,30.23,SW,229,5.0,5.0,83,0.00,,,0.00,0,Wunderground v.1.15,2013-12-26 05:30:00,
2013-12-25 23:31:00,17.6,13.3,30.23,WSW,237,5.0,7.0,83,0.00,,,0.00,0,Wunderground v.1.15,2013-12-26 05:31:00,
2013-12-25 23:32:00,17.5,12.9,30.23,SW,220,5.0,7.0,82,0.00,,,0.00,0,Wunderground v.1.15,2013-12-26 05:32:00,
2013-12-25 23:34:00,17.4,12.8,30.23,SW,221,5.0,7.0,82,0.00,,,0.00,0,Wunderground v.1.15,2013-12-26 05:34:00,
2013-12-25 23:36:00,17.3,12.7,30.23,WSW,238,5.0,7.0,82,0.00,,,0.00,0,Wunderground v.1.15,2013-12-26 05:36:00,
2013-12-25 23:38:00,17.1,12.6,30.23,WSW,237,4.0,7.0,82,0.00,,,0.00,0,Wunderground v.1.15,2013-12-26 05:38:00,
2013-12-25 23:39:00,17.0,12.5,30.23,WSW,237,4.0,7.0,82,0.00,,,0.00,0,Wunderground v.1.15,2013-12-26 05:39:00,
2013-12-25 23:41:00,16.9,12.4,30.23,WSW,253,3.0,4.0,82,0.00,,,0.00,0,Wunderground v.1.15,2013-12-26 05:41:00,
2013-12-25 23:42:00,16.8,12.3,30.23,WSW,249,3.0,4.0,82,0.00,,,0.00,0,Wunderground v.1.15,2013-12-26 05:42:00,
2013-12-25 23:43:00,16.8,12.3,30.23,WSW,242,3.0,4.0,82,0.00,,,0.00,0,Wunderground v.1.15,2013-12-26 05:43:00,
2013-12-25 23:44:00,16.7,12.2,30.23,SW,233,3.0,5.0,82,0.00,,,0.00,0,Wunderground v.1.15,2013-12-26 05:44:00,
2013-12-25 23:47:00,16.6,12.1,30.23,WSW,244,3.0,5.0,82,0.00,,,0.00,0,Wunderground v.1.15,2013-12-26 05:47:00,
2013-12-25 23:49:00,16.5,12.0,30.23,SW,225,3.0,5.0,82,0.00,,,0.00,0,Wunderground v.1.15,2013-12-26 05:49:00,
2013-12-25 23:50:00,16.4,11.9,30.23,SW,224,3.0,7.0,82,0.00,,,0.00,0,Wunderground v.1.15,2013-12-26 05:50:00,
2013-12-25 23:51:00,16.4,11.9,30.23,WSW,242,4.0,7.0,82,0.00,,,0.00,0,Wunderground v.1.15,2013-12-26 05:51:00,
2013-12-25 23:52:00,16.4,12.1,30.23,WSW,246,4.0,9.0,83,0.00,,,0.00,0,Wunderground v.1.15,2013-12-26 05:52:00,
2013-12-25 23:53:00,16.3,12.0,30.23,West,273,4.0,9.0,83,0.00,,,0.00,0,Wunderground v.1.15,2013-12-26 05:53:00,
2013-12-25 23:57:00,16.2,11.9,30.23,WSW,248,4.0,9.0,83,0.00,,,0.00,0,Wunderground v.1.15,2013-12-26 05:57:00,
2013-12-25 23:58:00,16.2,11.9,30.23,WSW,246,4.0,9.0,83,0.00,,,0.00,0,Wunderground v.1.15,2013-12-26 05:58:00,